GFSWCAN_prec_precacc12_063.txt.gz
Total_Precipitation_Accumulation
0.19 0.23 0.36 0.37 0.33 0.29 0.27 0.22 0.20 0.19 0.27 0.24 0.15 0.13 0.08 0.07 0.12 0.12 0.12 0.40 0.25 0.22 0.12 0.16 0.07 0.00 0.00 0.00 0.00 0.00 0.00 0.01 0.07 0.22 0.12 0.06 0.02 0.00 0.00 0.01 0.01 0.00 0.01 0.00 0.00 0.00 0.00 0.00 0.00 0.00 0.00 0.00 0.00 0.00
0.21 0.30 0.31 0.29 0.28 0.28 0.25 0.19 0.18 0.22 0.28 0.20 0.16 0.11 0.07 0.08 0.13 0.08 0.09 0.41 0.35 0.22 0.12 0.11 0.09 0.02 0.00 0.00 0.00 0.00 0.00 0.00 0.06 0.11 0.10 0.07 0.05 0.01 0.00 0.00 0.01 0.01 0.01 0.00 0.00 0.00 0.00 0.00 0.00 0.00 0.00 0.00 0.00 0.00
0.30 0.33 0.32 0.28 0.26 0.29 0.23 0.19 0.20 0.24 0.25 0.17 0.13 0.10 0.09 0.10 0.12 0.06 0.05 0.34 0.42 0.23 0.14 0.14 0.13 0.07 0.02 0.00 0.00 0.01 0.00 0.01 0.01 0.03 0.10 0.07 0.07 0.04 0.02 0.00 0.00 0.01 0.01 0.01 0.01 0.00 0.00 0.00 0.00 0.00 0.00 0.00 0.00 0.00
0.24 0.24 0.23 0.23 0.25 0.23 0.19 0.19 0.21 0.24 0.20 0.11 0.10 0.10 0.11 0.09 0.10 0.05 0.03 0.29 0.44 0.25 0.31 0.16 0.09 0.08 0.10 0.03 0.01 0.02 0.02 0.01 0.05 0.06 0.06 0.03 0.02 0.03 0.04 0.03 0.02 0.01 0.02 0.02 0.00 0.00 0.00 0.00 0.00 0.00 0.00 0.00 0.00 0.00
0.09 0.09 0.10 0.09 0.10 0.10 0.12 0.16 0.23 0.22 0.13 0.09 0.11 0.11 0.14 0.10 0.14 0.08 0.06 0.15 0.32 0.34 0.38 0.31 0.26 0.07 0.15 0.13 0.09 0.06 0.02 0.04 0.06 0.08 0.05 0.02 0.00 0.01 0.00 0.01 0.01 0.01 0.00 0.00 0.00 0.00 0.00 0.00 0.00 0.00 0.00 0.00 0.00 0.00
0.04 0.04 0.03 0.02 0.02 0.03 0.10 0.19 0.24 0.16 0.10 0.10 0.10 0.14 0.15 0.16 0.20 0.19 0.21 0.18 0.31 0.46 0.78 0.54 0.39 0.14 0.22 0.31 0.23 0.35 0.13 0.17 0.11 0.08 0.03 0.01 0.00 0.00 0.00 0.00 0.00 0.00 0.00 0.00 0.00 0.00 0.00 0.00 0.00 0.00 0.00 0.00 0.00 0.00
0.02 0.02 0.01 0.01 0.03 0.10 0.19 0.24 0.17 0.11 0.12 0.12 0.15 0.20 0.13 0.26 0.19 0.28 0.24 0.23 0.25 0.37 0.74 0.64 0.38 0.14 0.23 0.30 0.19 0.49 0.32 0.33 0.22 0.11 0.06 0.04 0.02 0.01 0.00 0.00 0.00 0.00 0.00 0.00 0.00 0.00 0.00 0.00 0.00 0.00 0.00 0.00 0.00 0.00
0.01 0.01 0.02 0.06 0.10 0.15 0.19 0.15 0.12 0.13 0.15 0.16 0.23 0.18 0.17 0.27 0.28 0.27 0.30 0.52 0.52 0.47 0.49 0.50 0.31 0.25 0.21 0.35 0.21 0.18 0.26 0.43 0.29 0.21 0.11 0.07 0.07 0.04 0.02 0.00 0.00 0.00 0.00 0.00 0.00 0.00 0.00 0.00 0.00 0.00 0.00 0.00 0.00 0.00
0.02 0.02 0.03 0.06 0.09 0.09 0.08 0.09 0.11 0.15 0.21 0.29 0.26 0.30 0.45 0.40 0.41 0.31 0.53 1.06 0.67 0.62 0.43 0.19 0.15 0.24 0.19 0.33 0.38 0.27 0.16 0.24 0.45 0.34 0.24 0.17 0.16 0.15 0.05 0.00 0.00 0.00 0.00 0.00 0.00 0.00 0.00 0.00 0.00 0.00 0.00 0.00 0.00 0.00
0.05 0.07 0.10 0.10 0.06 0.03 0.03 0.07 0.17 0.28 0.46 0.48 0.57 0.60 0.52 0.35 0.44 0.54 0.96 1.09 0.80 0.43 0.23 0.12 0.08 0.11 0.18 0.25 0.45 0.42 0.50 0.22 0.16 0.18 0.25 0.27 0.19 0.12 0.08 0.09 0.08 0.05 0.02 0.01 0.01 0.00 0.00 0.00 0.00 0.00 0.00 0.00 0.00 0.00
0.07 0.08 0.09 0.05 0.03 0.03 0.04 0.09 0.23 0.41 0.46 0.50 0.51 0.38 0.41 0.62 0.82 0.76 0.71 0.58 0.41 0.15 0.06 0.07 0.09 0.06 0.11 0.22 0.32 0.32 0.42 0.51 0.28 0.10 0.10 0.10 0.07 0.03 0.03 0.05 0.08 0.11 0.09 0.07 0.05 0.05 0.03 0.01 0.01 0.01 0.01 0.02 0.02 0.03
0.05 0.06 0.04 0.03 0.04 0.07 0.16 0.30 0.34 0.30 0.36 0.44 0.43 0.47 0.81 0.67 0.56 0.36 0.26 0.25 0.12 0.03 0.01 0.06 0.07 0.08 0.13 0.19 0.35 0.47 0.38 0.34 0.27 0.08 0.08 0.04 0.01 0.02 0.02 0.03 0.05 0.03 0.02 0.02 0.02 0.03 0.05 0.06 0.06 0.05 0.07 0.11 0.16 0.19
0.07 0.07 0.05 0.04 0.07 0.14 0.21 0.23 0.28 0.47 0.58 0.42 0.28 0.48 0.44 0.38 0.23 0.12 0.06 0.05 0.04 0.01 0.02 0.05 0.05 0.07 0.10 0.11 0.23 0.34 0.39 0.30 0.17 0.08 0.04 0.01 0.01 0.02 0.01 0.01 0.00 0.00 0.01 0.01 0.02 0.04 0.06 0.08 0.12 0.14 0.15 0.13 0.09 0.07
0.10 0.06 0.05 0.06 0.08 0.15 0.23 0.40 0.62 0.70 0.51 0.33 0.50 0.39 0.30 0.12 0.04 0.02 0.00 0.00 0.02 0.01 0.03 0.04 0.04 0.04 0.09 0.11 0.07 0.08 0.11 0.11 0.09 0.07 0.02 0.01 0.02 0.01 0.00 0.00 0.01 0.01 0.02 0.03 0.05 0.07 0.10 0.11 0.12 0.10 0.07 0.04 0.02 0.01
0.16 0.13 0.13 0.25 0.26 0.20 0.25 0.41 0.55 0.51 0.43 0.57 0.42 0.21 0.10 0.05 0.04 0.03 0.01 0.02 0.04 0.03 0.07 0.09 0.11 0.03 0.03 0.10 0.08 0.04 0.02 0.02 0.01 0.00 0.01 0.02 0.04 0.02 0.01 0.01 0.02 0.04 0.05 0.05 0.05 0.04 0.04 0.03 0.02 0.03 0.02 0.01 0.00 0.00
0.21 0.19 0.24 0.25 0.19 0.24 0.34 0.36 0.47 0.34 0.29 0.24 0.29 0.16 0.10 0.05 0.06 0.05 0.04 0.06 0.07 0.07 0.16 0.20 0.21 0.09 0.09 0.04 0.03 0.03 0.02 0.02 0.02 0.02 0.02 0.02 0.03 0.04 0.05 0.06 0.08 0.07 0.07 0.09 0.12 0.10 0.08 0.05 0.03 0.01 0.00 0.00 0.00 0.00
0.15 0.20 0.22 0.22 0.30 0.35 0.28 0.27 0.27 0.19 0.22 0.21 0.28 0.19 0.15 0.11 0.13 0.14 0.10 0.11 0.06 0.05 0.10 0.08 0.06 0.07 0.05 0.02 0.03 0.06 0.06 0.06 0.06 0.04 0.06 0.07 0.05 0.07 0.10 0.11 0.09 0.09 0.11 0.11 0.09 0.08 0.04 0.02 0.00 0.00 0.00 0.00 0.00 0.00
0.20 0.16 0.21 0.24 0.21 0.20 0.21 0.18 0.10 0.11 0.17 0.22 0.20 0.31 0.20 0.16 0.16 0.13 0.09 0.04 0.01 0.01 0.00 0.01 0.01 0.02 0.03 0.05 0.09 0.16 0.19 0.18 0.16 0.15 0.14 0.16 0.18 0.21 0.16 0.07 0.10 0.09 0.08 0.08 0.05 0.03 0.01 0.00 0.00 0.00 0.00 0.00 0.00 0.00
0.35 0.21 0.23 0.19 0.16 0.19 0.18 0.14 0.04 0.06 0.17 0.20 0.22 0.24 0.17 0.20 0.25 0.26 0.18 0.10 0.01 0.00 0.01 0.02 0.02 0.04 0.08 0.13 0.19 0.23 0.25 0.24 0.25 0.28 0.29 0.30 0.26 0.19 0.16 0.10 0.08 0.06 0.05 0.04 0.03 0.02 0.02 0.01 0.01 0.00 0.00 0.00 0.00 0.00
0.50 0.42 0.34 0.27 0.22 0.25 0.12 0.09 0.01 0.03 0.14 0.18 0.21 0.16 0.13 0.24 0.22 0.18 0.12 0.08 0.05 0.05 0.08 0.10 0.16 0.20 0.23 0.27 0.32 0.33 0.33 0.29 0.20 0.15 0.22 0.30 0.32 0.21 0.17 0.10 0.09 0.06 0.03 0.03 0.02 0.02 0.01 0.02 0.02 0.02 0.02 0.02 0.02 0.01
0.22 0.28 0.30 0.29 0.27 0.19 0.14 0.12 0.11 0.11 0.14 0.16 0.20 0.07 0.18 0.10 0.05 0.03 0.02 0.00 0.02 0.11 0.18 0.28 0.28 0.29 0.33 0.36 0.34 0.30 0.27 0.24 0.20 0.11 0.13 0.17 0.23 0.13 0.13 0.14 0.10 0.07 0.05 0.05 0.05 0.07 0.07 0.07 0.07 0.04 0.03 0.02 0.02 0.02
0.02 0.03 0.05 0.07 0.07 0.05 0.12 0.19 0.12 0.14 0.12 0.20 0.18 0.11 0.13 0.09 0.04 0.03 0.00 0.02 0.13 0.26 0.29 0.28 0.27 0.26 0.24 0.26 0.28 0.24 0.27 0.16 0.12 0.11 0.12 0.08 0.08 0.08 0.10 0.13 0.08 0.09 0.10 0.10 0.09 0.09 0.08 0.06 0.04 0.03 0.02 0.02 0.02 0.02
0.00 0.00 0.00 0.00 0.00 0.00 0.06 0.05 0.06 0.15 0.12 0.14 0.10 0.08 0.11 0.10 0.08 0.02 0.04 0.10 0.19 0.27 0.29 0.22 0.20 0.20 0.19 0.23 0.16 0.15 0.21 0.14 0.10 0.12 0.12 0.10 0.10 0.12 0.10 0.12 0.11 0.08 0.08 0.10 0.08 0.06 0.05 0.04 0.02 0.01 0.01 0.00 0.00 0.00
0.00 0.00 0.00 0.00 0.00 0.00 0.00 0.01 0.03 0.07 0.08 0.07 0.06 0.09 0.11 0.06 0.01 0.01 0.05 0.10 0.17 0.16 0.12 0.14 0.12 0.11 0.10 0.07 0.07 0.10 0.15 0.08 0.07 0.09 0.10 0.05 0.04 0.07 0.06 0.06 0.06 0.06 0.06 0.06 0.03 0.02 0.01 0.01 0.00 0.00 0.00 0.00 0.00 0.00
0.00 0.00 0.00 0.00 0.00 0.00 0.00 0.00 0.00 0.01 0.05 0.04 0.03 0.07 0.05 0.01 0.01 0.02 0.05 0.09 0.09 0.09 0.10 0.09 0.07 0.05 0.04 0.05 0.05 0.05 0.04 0.01 0.01 0.02 0.05 0.03 0.03 0.04 0.04 0.03 0.03 0.02 0.01 0.00 0.00 0.00 0.00 0.00 0.00 0.00 0.00 0.00 0.00 0.00
0.00 0.01 0.01 0.02 0.01 0.00 0.01 0.01 0.01 0.02 0.01 0.01 0.02 0.02 0.00 0.00 0.00 0.03 0.06 0.07 0.06 0.07 0.07 0.06 0.04 0.02 0.02 0.02 0.01 0.02 0.02 0.00 0.00 0.00 0.02 0.01 0.01 0.01 0.01 0.01 0.00 0.00 0.00 0.00 0.00 0.00 0.00 0.00 0.00 0.00 0.00 0.00 0.00 0.01
0.01 0.01 0.00 0.02 0.03 0.01 0.01 0.01 0.00 0.00 0.01 0.02 0.03 0.02 0.01 0.00 0.02 0.06 0.06 0.05 0.04 0.06 0.05 0.03 0.01 0.01 0.01 0.01 0.01 0.01 0.00 0.00 0.00 0.00 0.00 0.00 0.00 0.00 0.00 0.00 0.01 0.01 0.01 0.00 0.00 0.00 0.00 0.00 0.00 0.00 0.00 0.00 0.00 0.00
0.02 0.01 0.01 0.00 0.00 0.00 0.00 0.00 0.00 0.02 0.02 0.03 0.01 0.00 0.01 0.01 0.05 0.09 0.08 0.08 0.03 0.02 0.01 0.01 0.01 0.00 0.00 0.01 0.01 0.00 0.00 0.00 0.00 0.00 0.00 0.00 0.00 0.00 0.00 0.00 0.01 0.00 0.00 0.00 0.00 0.01 0.01 0.01 0.01 0.01 0.00 0.00 0.00 0.00
0.01 0.00 0.00 0.00 0.00 0.00 0.02 0.03 0.02 0.03 0.03 0.03 0.00 0.01 0.02 0.05 0.10 0.10 0.11 0.06 0.03 0.01 0.01 0.01 0.02 0.00 0.00 0.00 0.00 0.00 0.00 0.00 0.00 0.00 0.00 0.00 0.00 0.00 0.00 0.01 0.00 0.00 0.00 0.00 0.00 0.00 0.01 0.01 0.01 0.00 0.00 0.00 0.00 0.00
0.00 0.00 0.00 0.00 0.01 0.01 0.03 0.01 0.02 0.01 0.00 0.00 0.00 0.02 0.02 0.07 0.12 0.08 0.05 0.03 0.01 0.01 0.01 0.01 0.01 0.00 0.00 0.00 0.00 0.00 0.00 0.00 0.00 0.00 0.00 0.00 0.01 0.01 0.00 0.00 0.00 0.00 0.00 0.00 0.00 0.00 0.00 0.00 0.00 0.00 0.00 0.00 0.00 0.00
0.00 0.00 0.00 0.00 0.02 0.03 0.01 0.00 0.00 0.00 0.00 0.00 0.00 0.00 0.02 0.05 0.05 0.04 0.03 0.03 0.01 0.00 0.00 0.00 0.00 0.00 0.00 0.00 0.00 0.00 0.00 0.01 0.00 0.00 0.00 0.00 0.01 0.00 0.00 0.00 0.00 0.00 0.00 0.00 0.00 0.00 0.00 0.00 0.00 0.00 0.00 0.00 0.00 0.00
0.00 0.00 0.00 0.01 0.03 0.04 0.05 0.05 0.02 0.01 0.00 0.00 0.00 0.00 0.01 0.00 0.01 0.01 0.02 0.02 0.00 0.00 0.01 0.00 0.00 0.00 0.00 0.00 0.00 0.00 0.00 0.01 0.00 0.00 0.00 0.00 0.00 0.00 0.00 0.00 0.00 0.00 0.00 0.00 0.00 0.00 0.00 0.00 0.00 0.00 0.00 0.00 0.00 0.00
0.00 0.00 0.00 0.00 0.02 0.03 0.04 0.06 0.02 0.01 0.01 0.01 0.01 0.01 0.00 0.00 0.00 0.02 0.02 0.00 0.00 0.00 0.00 0.00 0.01 0.01 0.01 0.00 0.00 0.00 0.00 0.00 0.00 0.01 0.01 0.00 0.00 0.00 0.00 0.00 0.00 0.00 0.00 0.00 0.00 0.00 0.00 0.00 0.00 0.00 0.00 0.00 0.00 0.00

GFSWCAN_prec_precacc12_069.txt.gz
Total_Precipitation_Accumulation
0.06 0.05 0.10 0.25 0.46 0.33 0.33 0.29 0.26 0.23 0.25 0.27 0.28 0.42 0.34 0.28 0.33 0.24 0.17 0.14 0.15 0.19 0.10 0.19 0.09 0.05 0.01 0.02 0.03 0.01 0.05 0.04 0.03 0.01 0.01 0.01 0.01 0.00 0.01 0.03 0.05 0.02 0.02 0.01 0.01 0.01 0.00 0.00 0.00 0.00 0.00 0.00 0.00 0.00
0.12 0.10 0.13 0.19 0.40 0.41 0.36 0.28 0.25 0.23 0.23 0.27 0.27 0.35 0.31 0.25 0.33 0.20 0.12 0.20 0.18 0.26 0.16 0.15 0.18 0.08 0.02 0.00 0.00 0.01 0.01 0.00 0.00 0.00 0.00 0.01 0.02 0.01 0.00 0.00 0.01 0.03 0.03 0.04 0.01 0.00 0.00 0.00 0.00 0.00 0.00 0.00 0.00 0.00
0.26 0.24 0.26 0.27 0.36 0.42 0.33 0.26 0.24 0.23 0.23 0.26 0.25 0.28 0.26 0.29 0.36 0.16 0.06 0.24 0.27 0.24 0.16 0.13 0.19 0.16 0.08 0.00 0.00 0.02 0.02 0.00 0.00 0.00 0.01 0.02 0.01 0.00 0.00 0.00 0.00 0.01 0.01 0.01 0.01 0.00 0.00 0.00 0.00 0.00 0.00 0.00 0.00 0.00
0.31 0.27 0.27 0.28 0.33 0.31 0.23 0.23 0.23 0.22 0.20 0.20 0.21 0.25 0.28 0.39 0.36 0.10 0.04 0.24 0.29 0.16 0.26 0.15 0.14 0.19 0.15 0.05 0.02 0.01 0.00 0.00 0.01 0.01 0.03 0.03 0.02 0.01 0.00 0.01 0.01 0.01 0.02 0.02 0.00 0.00 0.01 0.00 0.00 0.00 0.00 0.00 0.00 0.00
0.20 0.21 0.17 0.16 0.16 0.16 0.18 0.19 0.20 0.19 0.18 0.20 0.23 0.31 0.44 0.55 0.34 0.09 0.05 0.12 0.24 0.19 0.21 0.23 0.21 0.11 0.24 0.20 0.14 0.07 0.01 0.01 0.04 0.04 0.03 0.01 0.01 0.01 0.00 0.00 0.00 0.00 0.00 0.00 0.00 0.00 0.01 0.00 0.00 0.00 0.00 0.00 0.00 0.00
0.11 0.16 0.12 0.10 0.10 0.11 0.13 0.15 0.18 0.21 0.21 0.24 0.30 0.44 0.56 0.42 0.21 0.16 0.28 0.16 0.23 0.23 0.31 0.34 0.22 0.13 0.25 0.31 0.26 0.20 0.06 0.03 0.04 0.06 0.04 0.01 0.00 0.01 0.00 0.00 0.00 0.00 0.00 0.00 0.00 0.00 0.00 0.00 0.00 0.00 0.00 0.00 0.00 0.00
0.04 0.09 0.13 0.12 0.10 0.12 0.15 0.22 0.21 0.19 0.20 0.27 0.41 0.47 0.26 0.24 0.16 0.20 0.16 0.05 0.13 0.16 0.29 0.44 0.32 0.17 0.27 0.32 0.25 0.15 0.10 0.05 0.04 0.07 0.08 0.06 0.04 0.01 0.00 0.00 0.00 0.00 0.00 0.00 0.00 0.00 0.00 0.00 0.00 0.00 0.00 0.00 0.00 0.00
0.03 0.04 0.09 0.14 0.17 0.20 0.25 0.25 0.23 0.26 0.30 0.33 0.33 0.21 0.19 0.23 0.19 0.15 0.06 0.02 0.01 0.06 0.22 0.45 0.38 0.33 0.41 0.43 0.31 0.24 0.14 0.11 0.10 0.06 0.03 0.04 0.09 0.06 0.02 0.00 0.00 0.00 0.00 0.00 0.00 0.00 0.00 0.00 0.00 0.00 0.00 0.00 0.00 0.00
0.02 0.04 0.07 0.10 0.15 0.16 0.15 0.17 0.18 0.21 0.27 0.35 0.30 0.26 0.34 0.24 0.17 0.16 0.10 0.08 0.05 0.07 0.16 0.27 0.40 0.54 0.59 0.50 0.37 0.35 0.29 0.20 0.10 0.04 0.03 0.03 0.03 0.04 0.03 0.00 0.00 0.00 0.00 0.00 0.00 0.00 0.00 0.00 0.00 0.00 0.00 0.00 0.00 0.00
0.04 0.06 0.06 0.05 0.05 0.04 0.05 0.08 0.15 0.24 0.37 0.34 0.38 0.35 0.34 0.16 0.18 0.38 0.41 0.37 0.19 0.07 0.11 0.17 0.30 0.62 0.59 0.27 0.46 0.40 0.49 0.23 0.11 0.06 0.06 0.05 0.04 0.03 0.06 0.08 0.08 0.04 0.02 0.01 0.00 0.00 0.00 0.00 0.00 0.00 0.00 0.00 0.00 0.00
0.04 0.04 0.03 0.02 0.02 0.02 0.02 0.04 0.16 0.30 0.28 0.29 0.22 0.19 0.21 0.32 0.63 0.40 0.33 0.30 0.14 0.03 0.03 0.13 0.25 0.54 0.59 0.29 0.30 0.34 0.41 0.51 0.30 0.16 0.13 0.10 0.05 0.02 0.02 0.04 0.08 0.10 0.09 0.06 0.05 0.05 0.03 0.01 0.01 0.01 0.02 0.03 0.04 0.06
0.01 0.01 0.01 0.01 0.02 0.04 0.10 0.23 0.29 0.18 0.15 0.18 0.18 0.27 0.44 0.53 0.43 0.20 0.10 0.21 0.04 0.01 0.01 0.06 0.40 0.61 0.39 0.26 0.34 0.47 0.37 0.34 0.31 0.17 0.18 0.13 0.03 0.01 0.01 0.02 0.03 0.02 0.01 0.01 0.01 0.02 0.05 0.08 0.12 0.17 0.20 0.24 0.31 0.36
0.00 0.00 0.01 0.03 0.10 0.21 0.31 0.29 0.14 0.17 0.25 0.23 0.27 0.28 0.35 0.26 0.15 0.05 0.05 0.06 0.03 0.02 0.01 0.07 0.26 0.31 0.15 0.13 0.22 0.34 0.40 0.34 0.25 0.25 0.21 0.11 0.05 0.03 0.01 0.00 0.00 0.00 0.01 0.04 0.07 0.09 0.11 0.14 0.17 0.20 0.27 0.33 0.29 0.27
0.01 0.03 0.07 0.10 0.12 0.16 0.19 0.13 0.16 0.25 0.32 0.27 0.26 0.20 0.22 0.06 0.04 0.03 0.02 0.01 0.02 0.01 0.04 0.04 0.05 0.06 0.03 0.05 0.06 0.08 0.11 0.14 0.21 0.21 0.20 0.19 0.19 0.14 0.07 0.04 0.03 0.06 0.09 0.11 0.16 0.18 0.18 0.18 0.20 0.22 0.19 0.18 0.14 0.13
0.03 0.06 0.07 0.08 0.14 0.18 0.12 0.08 0.18 0.33 0.40 0.51 0.33 0.22 0.14 0.06 0.03 0.02 0.00 0.01 0.03 0.04 0.08 0.09 0.09 0.03 0.02 0.06 0.07 0.04 0.03 0.05 0.03 0.03 0.04 0.05 0.11 0.16 0.18 0.13 0.12 0.14 0.15 0.14 0.14 0.12 0.11 0.07 0.04 0.09 0.10 0.08 0.04 0.04
0.03 0.07 0.11 0.11 0.11 0.12 0.15 0.22 0.36 0.30 0.31 0.28 0.32 0.21 0.18 0.09 0.08 0.06 0.03 0.06 0.08 0.08 0.19 0.23 0.23 0.12 0.12 0.05 0.04 0.05 0.04 0.05 0.07 0.07 0.06 0.08 0.11 0.16 0.19 0.22 0.21 0.17 0.13 0.13 0.17 0.15 0.13 0.09 0.05 0.04 0.03 0.02 0.01 0.01
0.05 0.07 0.12 0.15 0.21 0.26 0.26 0.29 0.29 0.22 0.26 0.26 0.32 0.25 0.23 0.17 0.17 0.16 0.13 0.16 0.13 0.12 0.21 0.22 0.18 0.16 0.11 0.04 0.05 0.08 0.11 0.14 0.16 0.17 0.16 0.18 0.21 0.26 0.26 0.21 0.15 0.12 0.14 0.14 0.14 0.12 0.06 0.03 0.00 0.00 0.00 0.00 0.00 0.00
0.12 0.11 0.18 0.20 0.18 0.22 0.24 0.24 0.19 0.22 0.24 0.25 0.21 0.32 0.25 0.24 0.24 0.22 0.25 0.26 0.18 0.12 0.11 0.11 0.10 0.07 0.05 0.06 0.09 0.16 0.23 0.27 0.24 0.25 0.24 0.27 0.29 0.31 0.23 0.11 0.12 0.11 0.11 0.12 0.08 0.05 0.02 0.01 0.00 0.00 0.00 0.00 0.00 0.00
0.39 0.25 0.25 0.20 0.18 0.25 0.26 0.24 0.13 0.16 0.21 0.25 0.27 0.27 0.25 0.28 0.33 0.37 0.37 0.32 0.22 0.12 0.09 0.12 0.13 0.13 0.14 0.12 0.16 0.22 0.28 0.28 0.27 0.29 0.30 0.36 0.35 0.27 0.20 0.12 0.10 0.09 0.07 0.07 0.05 0.04 0.03 0.02 0.02 0.01 0.00 0.00 0.00 0.00
0.76 0.63 0.45 0.34 0.25 0.32 0.19 0.20 0.10 0.09 0.19 0.19 0.24 0.23 0.23 0.31 0.30 0.29 0.25 0.23 0.21 0.18 0.17 0.14 0.17 0.19 0.20 0.21 0.25 0.33 0.36 0.31 0.26 0.16 0.23 0.31 0.37 0.23 0.20 0.12 0.10 0.07 0.04 0.04 0.03 0.02 0.02 0.02 0.03 0.03 0.02 0.03 0.03 0.03
0.45 0.51 0.44 0.36 0.31 0.23 0.19 0.19 0.13 0.10 0.11 0.14 0.17 0.11 0.19 0.14 0.10 0.09 0.09 0.06 0.06 0.13 0.18 0.23 0.22 0.22 0.24 0.26 0.28 0.29 0.28 0.24 0.26 0.17 0.17 0.19 0.28 0.15 0.14 0.13 0.08 0.05 0.04 0.04 0.03 0.04 0.03 0.04 0.05 0.04 0.03 0.03 0.03 0.03
0.06 0.09 0.10 0.10 0.10 0.06 0.12 0.18 0.12 0.14 0.10 0.16 0.15 0.08 0.10 0.09 0.07 0.06 0.02 0.03 0.12 0.21 0.25 0.24 0.24 0.24 0.23 0.27 0.30 0.28 0.33 0.26 0.23 0.19 0.19 0.15 0.13 0.10 0.09 0.10 0.04 0.04 0.04 0.04 0.03 0.03 0.03 0.03 0.02 0.02 0.02 0.02 0.02 0.02
0.00 0.00 0.00 0.00 0.00 0.00 0.06 0.04 0.05 0.13 0.10 0.13 0.11 0.07 0.10 0.08 0.07 0.02 0.04 0.10 0.16 0.25 0.27 0.23 0.25 0.26 0.24 0.31 0.24 0.23 0.30 0.18 0.14 0.16 0.15 0.10 0.08 0.07 0.04 0.04 0.02 0.01 0.02 0.03 0.02 0.01 0.01 0.01 0.01 0.01 0.01 0.00 0.00 0.00
0.00 0.00 0.00 0.00 0.00 0.00 0.00 0.01 0.03 0.06 0.06 0.07 0.05 0.08 0.09 0.06 0.02 0.01 0.06 0.11 0.18 0.18 0.16 0.19 0.20 0.20 0.19 0.16 0.14 0.16 0.23 0.14 0.08 0.09 0.08 0.02 0.01 0.01 0.01 0.00 0.00 0.00 0.00 0.01 0.00 0.00 0.00 0.00 0.00 0.00 0.00 0.00 0.00 0.00
0.00 0.00 0.00 0.00 0.00 0.00 0.00 0.00 0.00 0.01 0.05 0.04 0.03 0.06 0.04 0.01 0.01 0.02 0.05 0.10 0.12 0.13 0.15 0.16 0.14 0.14 0.12 0.13 0.13 0.12 0.08 0.04 0.02 0.01 0.01 0.00 0.00 0.00 0.00 0.00 0.00 0.00 0.00 0.00 0.00 0.00 0.00 0.00 0.00 0.00 0.00 0.00 0.00 0.00
0.00 0.00 0.00 0.01 0.01 0.00 0.00 0.01 0.01 0.01 0.01 0.01 0.02 0.01 0.00 0.00 0.00 0.03 0.05 0.08 0.09 0.10 0.12 0.12 0.11 0.09 0.08 0.06 0.05 0.02 0.00 0.00 0.00 0.00 0.00 0.00 0.00 0.00 0.00 0.00 0.00 0.00 0.00 0.00 0.00 0.00 0.00 0.00 0.00 0.00 0.00 0.00 0.00 0.00
0.00 0.00 0.00 0.00 0.01 0.00 0.00 0.00 0.00 0.00 0.01 0.01 0.01 0.00 0.00 0.00 0.02 0.04 0.05 0.06 0.06 0.08 0.08 0.07 0.04 0.03 0.02 0.01 0.00 0.00 0.00 0.00 0.00 0.00 0.00 0.00 0.00 0.00 0.00 0.00 0.01 0.01 0.01 0.00 0.00 0.00 0.00 0.00 0.00 0.00 0.00 0.00 0.00 0.00
0.00 0.00 0.00 0.00 0.00 0.00 0.00 0.00 0.00 0.01 0.02 0.02 0.00 0.00 0.00 0.01 0.03 0.07 0.05 0.06 0.05 0.04 0.04 0.02 0.01 0.00 0.00 0.00 0.00 0.00 0.00 0.00 0.00 0.00 0.00 0.00 0.00 0.00 0.00 0.00 0.00 0.00 0.00 0.00 0.00 0.00 0.01 0.01 0.00 0.00 0.00 0.00 0.00 0.00
0.00 0.00 0.00 0.00 0.00 0.00 0.01 0.02 0.02 0.02 0.02 0.02 0.00 0.01 0.02 0.03 0.07 0.07 0.07 0.04 0.02 0.02 0.01 0.00 0.00 0.00 0.00 0.00 0.00 0.00 0.00 0.00 0.00 0.00 0.00 0.00 0.00 0.00 0.00 0.00 0.00 0.00 0.00 0.00 0.00 0.00 0.00 0.01 0.01 0.00 0.00 0.00 0.00 0.00
0.00 0.00 0.00 0.00 0.00 0.01 0.02 0.01 0.01 0.01 0.01 0.00 0.00 0.01 0.02 0.05 0.09 0.08 0.05 0.04 0.02 0.02 0.01 0.00 0.00 0.00 0.00 0.00 0.00 0.00 0.00 0.00 0.00 0.00 0.00 0.00 0.00 0.01 0.00 0.00 0.00 0.00 0.00 0.00 0.00 0.00 0.00 0.00 0.00 0.00 0.00 0.00 0.00 0.00
0.00 0.00 0.00 0.00 0.01 0.01 0.01 0.01 0.00 0.00 0.00 0.00 0.00 0.00 0.01 0.04 0.04 0.03 0.02 0.02 0.02 0.01 0.00 0.00 0.00 0.00 0.00 0.00 0.00 0.00 0.00 0.00 0.00 0.00 0.00 0.00 0.00 0.00 0.00 0.00 0.00 0.01 0.00 0.00 0.00 0.00 0.00 0.00 0.00 0.00 0.00 0.00 0.00 0.00
0.00 0.00 0.00 0.00 0.01 0.02 0.02 0.01 0.00 0.00 0.00 0.00 0.00 0.00 0.00 0.00 0.01 0.01 0.01 0.02 0.01 0.00 0.00 0.00 0.00 0.00 0.00 0.00 0.00 0.00 0.00 0.00 0.00 0.00 0.00 0.00 0.00 0.00 0.00 0.00 0.00 0.00 0.00 0.00 0.00 0.00 0.00 0.00 0.00 0.00 0.00 0.00 0.00 0.00
0.00 0.00 0.00 0.00 0.01 0.02 0.03 0.03 0.01 0.01 0.01 0.01 0.01 0.01 0.00 0.00 0.00 0.01 0.00 0.00 0.01 0.00 0.00 0.01 0.01 0.00 0.00 0.00 0.00 0.00 0.00 0.00 0.00 0.00 0.00 0.00 0.00 0.00 0.00 0.00 0.00 0.00 0.00 0.00 0.00 0.00 0.00 0.00 0.00 0.00 0.00 0.00 0.00 0.00

GFSWCAN_prec_precacc12_075.txt.gz
Total_Precipitation_Accumulation
0.05 0.05 0.04 0.10 0.26 0.12 0.12 0.11 0.12 0.12 0.15 0.17 0.20 0.35 0.33 0.30 0.54 1.24 0.99 0.19 0.08 0.17 0.08 0.10 0.06 0.06 0.02 0.02 0.03 0.01 0.08 0.10 0.12 0.09 0.08 0.03 0.01 0.01 0.01 0.04 0.16 0.10 0.04 0.03 0.04 0.04 0.02 0.00 0.00 0.00 0.00 0.00 0.00 0.00
0.08 0.05 0.04 0.05 0.20 0.16 0.15 0.11 0.10 0.10 0.10 0.24 0.21 0.31 0.32 0.25 0.34 0.74 1.25 0.44 0.10 0.23 0.19 0.11 0.13 0.07 0.02 0.00 0.00 0.02 0.02 0.02 0.03 0.05 0.03 0.03 0.03 0.03 0.00 0.00 0.02 0.16 0.14 0.10 0.03 0.01 0.00 0.00 0.00 0.00 0.00 0.00 0.00 0.00
0.12 0.08 0.04 0.04 0.14 0.16 0.13 0.15 0.15 0.09 0.08 0.21 0.28 0.28 0.29 0.29 0.36 0.36 0.75 0.35 0.26 0.60 0.41 0.14 0.11 0.11 0.07 0.00 0.00 0.08 0.03 0.00 0.00 0.00 0.05 0.06 0.04 0.02 0.01 0.00 0.00 0.00 0.02 0.09 0.06 0.02 0.03 0.03 0.02 0.00 0.00 0.00 0.00 0.00
0.19 0.08 0.06 0.09 0.11 0.09 0.07 0.10 0.20 0.14 0.11 0.18 0.30 0.30 0.33 0.45 0.45 0.21 0.28 0.22 0.42 0.72 0.46 0.12 0.07 0.13 0.09 0.03 0.02 0.04 0.02 0.01 0.01 0.02 0.09 0.16 0.06 0.00 0.00 0.00 0.00 0.00 0.00 0.00 0.01 0.00 0.02 0.01 0.01 0.01 0.00 0.00 0.00 0.00
0.21 0.15 0.09 0.09 0.11 0.10 0.14 0.20 0.25 0.20 0.17 0.21 0.35 0.42 0.58 0.73 0.45 0.17 0.13 0.23 0.31 0.15 0.12 0.14 0.14 0.07 0.15 0.11 0.08 0.04 0.02 0.05 0.16 0.21 0.19 0.21 0.02 0.02 0.01 0.01 0.00 0.00 0.00 0.00 0.00 0.00 0.00 0.00 0.00 0.00 0.00 0.00 0.00 0.00
0.18 0.15 0.11 0.10 0.12 0.17 0.24 0.29 0.28 0.23 0.22 0.30 0.48 0.65 0.78 0.54 0.26 0.28 0.59 0.53 0.20 0.14 0.17 0.27 0.17 0.11 0.17 0.18 0.17 0.16 0.04 0.09 0.16 0.29 0.19 0.18 0.12 0.04 0.03 0.01 0.00 0.00 0.00 0.00 0.00 0.00 0.00 0.00 0.01 0.00 0.00 0.00 0.00 0.00
0.14 0.11 0.12 0.11 0.11 0.14 0.18 0.22 0.24 0.24 0.27 0.49 0.65 0.58 0.37 0.25 0.17 0.22 0.31 0.35 0.23 0.14 0.13 0.34 0.30 0.16 0.21 0.24 0.22 0.23 0.19 0.15 0.17 0.32 0.36 0.13 0.07 0.10 0.05 0.00 0.00 0.00 0.00 0.00 0.00 0.00 0.00 0.00 0.00 0.00 0.00 0.00 0.00 0.00
0.15 0.13 0.11 0.12 0.12 0.14 0.17 0.19 0.21 0.29 0.45 0.52 0.44 0.40 0.39 0.27 0.21 0.12 0.01 0.00 0.03 0.05 0.11 0.33 0.37 0.32 0.36 0.33 0.22 0.19 0.24 0.39 0.23 0.30 0.24 0.28 0.18 0.14 0.04 0.00 0.00 0.00 0.00 0.00 0.00 0.00 0.00 0.00 0.00 0.00 0.00 0.00 0.00 0.00
0.12 0.13 0.13 0.11 0.11 0.12 0.13 0.14 0.21 0.31 0.39 0.45 0.46 0.41 0.34 0.24 0.24 0.09 0.06 0.08 0.06 0.07 0.13 0.24 0.40 0.61 0.73 0.38 0.17 0.20 0.27 0.47 0.27 0.19 0.17 0.20 0.27 0.12 0.01 0.01 0.00 0.00 0.00 0.00 0.00 0.00 0.00 0.00 0.00 0.00 0.00 0.00 0.00 0.00
0.15 0.15 0.13 0.12 0.12 0.13 0.12 0.11 0.12 0.14 0.15 0.13 0.15 0.21 0.40 0.20 0.07 0.19 0.21 0.21 0.12 0.07 0.15 0.17 0.31 0.66 0.95 0.62 0.24 0.19 0.22 0.31 0.28 0.16 0.16 0.14 0.12 0.10 0.05 0.06 0.01 0.00 0.00 0.00 0.00 0.00 0.00 0.00 0.00 0.00 0.00 0.00 0.00 0.00
0.17 0.18 0.19 0.21 0.25 0.28 0.29 0.25 0.19 0.14 0.11 0.11 0.16 0.24 0.20 0.16 0.38 0.19 0.19 0.20 0.10 0.04 0.04 0.14 0.25 0.56 0.74 0.51 0.28 0.21 0.20 0.14 0.25 0.25 0.20 0.20 0.08 0.06 0.02 0.01 0.00 0.00 0.00 0.00 0.00 0.00 0.00 0.00 0.00 0.00 0.01 0.01 0.01 0.03
0.11 0.11 0.13 0.14 0.14 0.12 0.09 0.07 0.07 0.07 0.10 0.15 0.15 0.12 0.19 0.41 0.31 0.16 0.08 0.17 0.05 0.02 0.03 0.07 0.41 0.65 0.53 0.50 0.32 0.30 0.18 0.10 0.08 0.18 0.23 0.21 0.10 0.01 0.00 0.00 0.00 0.00 0.00 0.00 0.00 0.00 0.01 0.02 0.07 0.12 0.13 0.13 0.15 0.18
0.05 0.03 0.02 0.03 0.06 0.09 0.15 0.15 0.08 0.08 0.11 0.10 0.12 0.12 0.24 0.17 0.16 0.08 0.05 0.05 0.04 0.05 0.01 0.07 0.36 0.61 0.58 0.62 0.38 0.38 0.15 0.21 0.12 0.22 0.21 0.14 0.06 0.02 0.01 0.00 0.00 0.00 0.01 0.03 0.05 0.06 0.06 0.06 0.08 0.10 0.16 0.25 0.26 0.29
0.01 0.03 0.07 0.10 0.10 0.14 0.17 0.09 0.05 0.04 0.07 0.07 0.05 0.12 0.16 0.10 0.18 0.14 0.06 0.03 0.02 0.02 0.02 0.03 0.07 0.18 0.45 0.53 0.33 0.39 0.20 0.20 0.23 0.19 0.21 0.21 0.19 0.15 0.10 0.08 0.08 0.11 0.12 0.12 0.16 0.16 0.15 0.14 0.17 0.21 0.21 0.22 0.17 0.18
0.01 0.03 0.05 0.08 0.14 0.17 0.09 0.04 0.03 0.02 0.02 0.02 0.07 0.13 0.11 0.13 0.10 0.05 0.03 0.02 0.03 0.02 0.04 0.03 0.02 0.05 0.17 0.30 0.13 0.25 0.25 0.20 0.13 0.09 0.10 0.11 0.13 0.18 0.25 0.24 0.22 0.25 0.28 0.30 0.32 0.27 0.27 0.23 0.16 0.20 0.20 0.13 0.06 0.06
0.00 0.03 0.08 0.08 0.04 0.01 0.01 0.01 0.01 0.00 0.02 0.04 0.07 0.11 0.13 0.09 0.07 0.04 0.02 0.03 0.06 0.05 0.05 0.06 0.05 0.05 0.04 0.05 0.04 0.09 0.08 0.09 0.12 0.14 0.14 0.13 0.17 0.21 0.25 0.31 0.34 0.34 0.29 0.27 0.27 0.22 0.21 0.17 0.11 0.13 0.11 0.06 0.04 0.02
0.00 0.01 0.01 0.01 0.01 0.01 0.01 0.02 0.02 0.04 0.04 0.06 0.11 0.12 0.13 0.11 0.11 0.10 0.08 0.10 0.15 0.15 0.13 0.16 0.15 0.10 0.07 0.03 0.04 0.05 0.13 0.18 0.18 0.22 0.22 0.25 0.30 0.33 0.31 0.25 0.25 0.22 0.22 0.20 0.18 0.14 0.11 0.08 0.04 0.02 0.02 0.02 0.01 0.00
0.03 0.01 0.02 0.02 0.01 0.01 0.04 0.06 0.09 0.11 0.09 0.10 0.10 0.19 0.16 0.18 0.18 0.17 0.21 0.27 0.23 0.14 0.11 0.12 0.11 0.07 0.05 0.06 0.10 0.16 0.15 0.20 0.20 0.24 0.32 0.38 0.36 0.33 0.26 0.19 0.20 0.16 0.15 0.14 0.08 0.06 0.03 0.01 0.00 0.00 0.00 0.00 0.00 0.00
0.11 0.06 0.04 0.02 0.03 0.06 0.12 0.16 0.12 0.13 0.15 0.17 0.20 0.20 0.21 0.26 0.30 0.31 0.31 0.31 0.24 0.12 0.09 0.12 0.13 0.13 0.13 0.12 0.16 0.23 0.22 0.18 0.20 0.26 0.33 0.39 0.36 0.29 0.25 0.20 0.17 0.16 0.12 0.10 0.05 0.04 0.04 0.02 0.01 0.01 0.01 0.00 0.01 0.02
0.26 0.21 0.11 0.08 0.04 0.10 0.12 0.17 0.11 0.11 0.17 0.16 0.22 0.21 0.21 0.26 0.25 0.23 0.21 0.20 0.17 0.15 0.14 0.12 0.16 0.18 0.20 0.22 0.25 0.32 0.26 0.23 0.22 0.19 0.29 0.36 0.37 0.25 0.25 0.18 0.17 0.13 0.08 0.06 0.04 0.02 0.01 0.01 0.01 0.01 0.01 0.01 0.02 0.03
0.23 0.23 0.14 0.07 0.04 0.06 0.13 0.19 0.15 0.13 0.14 0.17 0.19 0.16 0.20 0.14 0.11 0.11 0.11 0.09 0.08 0.12 0.15 0.19 0.19 0.19 0.21 0.25 0.28 0.26 0.28 0.22 0.27 0.22 0.23 0.27 0.33 0.21 0.20 0.19 0.12 0.08 0.05 0.04 0.02 0.01 0.00 0.01 0.01 0.01 0.01 0.01 0.01 0.01
0.05 0.07 0.05 0.04 0.03 0.02 0.09 0.13 0.11 0.13 0.10 0.14 0.13 0.10 0.13 0.13 0.11 0.09 0.05 0.06 0.14 0.21 0.21 0.20 0.20 0.19 0.19 0.23 0.27 0.27 0.32 0.26 0.26 0.26 0.28 0.22 0.22 0.19 0.17 0.16 0.08 0.05 0.02 0.01 0.00 0.01 0.01 0.00 0.00 0.00 0.00 0.00 0.00 0.00
0.00 0.00 0.00 0.00 0.00 0.00 0.03 0.03 0.05 0.12 0.12 0.12 0.08 0.07 0.08 0.08 0.08 0.03 0.06 0.12 0.19 0.26 0.23 0.18 0.21 0.22 0.22 0.28 0.22 0.24 0.31 0.23 0.23 0.25 0.24 0.20 0.16 0.13 0.08 0.05 0.01 0.00 0.00 0.00 0.00 0.00 0.00 0.00 0.00 0.00 0.00 0.00 0.00 0.00
0.00 0.00 0.00 0.00 0.00 0.00 0.00 0.00 0.01 0.02 0.01 0.02 0.01 0.03 0.04 0.04 0.01 0.01 0.06 0.13 0.20 0.17 0.18 0.22 0.18 0.19 0.19 0.17 0.18 0.23 0.31 0.23 0.17 0.17 0.16 0.10 0.06 0.03 0.01 0.00 0.00 0.00 0.00 0.00 0.00 0.00 0.00 0.00 0.00 0.00 0.00 0.00 0.00 0.00
0.00 0.00 0.00 0.00 0.00 0.00 0.00 0.00 0.00 0.01 0.02 0.01 0.01 0.02 0.02 0.01 0.00 0.01 0.03 0.09 0.10 0.12 0.14 0.15 0.14 0.15 0.15 0.18 0.20 0.18 0.17 0.14 0.10 0.07 0.05 0.01 0.01 0.00 0.00 0.00 0.00 0.00 0.00 0.00 0.00 0.00 0.00 0.00 0.00 0.00 0.00 0.00 0.00 0.00
0.01 0.00 0.00 0.01 0.01 0.00 0.01 0.01 0.01 0.01 0.01 0.01 0.01 0.01 0.01 0.00 0.00 0.02 0.05 0.07 0.07 0.10 0.12 0.13 0.13 0.12 0.13 0.13 0.11 0.09 0.06 0.03 0.03 0.02 0.02 0.01 0.00 0.00 0.00 0.00 0.00 0.00 0.00 0.00 0.00 0.00 0.00 0.00 0.00 0.00 0.00 0.00 0.00 0.00
0.00 0.00 0.00 0.00 0.01 0.01 0.00 0.00 0.00 0.00 0.01 0.02 0.01 0.00 0.00 0.00 0.02 0.04 0.04 0.05 0.05 0.08 0.09 0.09 0.07 0.06 0.06 0.04 0.02 0.01 0.00 0.00 0.00 0.00 0.00 0.00 0.00 0.00 0.00 0.00 0.00 0.01 0.00 0.00 0.00 0.00 0.00 0.00 0.00 0.00 0.00 0.00 0.00 0.00
0.00 0.00 0.00 0.00 0.00 0.00 0.00 0.00 0.01 0.01 0.01 0.01 0.01 0.00 0.00 0.01 0.04 0.06 0.04 0.05 0.05 0.05 0.05 0.05 0.03 0.02 0.02 0.01 0.00 0.00 0.00 0.00 0.00 0.00 0.00 0.00 0.00 0.00 0.00 0.00 0.00 0.00 0.00 0.00 0.00 0.00 0.00 0.00 0.00 0.00 0.00 0.00 0.00 0.00
0.00 0.00 0.00 0.00 0.00 0.00 0.01 0.01 0.01 0.01 0.01 0.02 0.01 0.01 0.02 0.05 0.08 0.05 0.04 0.04 0.05 0.04 0.04 0.03 0.02 0.00 0.00 0.00 0.00 0.00 0.01 0.00 0.00 0.00 0.00 0.00 0.00 0.00 0.00 0.00 0.00 0.01 0.00 0.00 0.00 0.00 0.00 0.00 0.00 0.00 0.00 0.00 0.00 0.00
0.00 0.00 0.00 0.00 0.00 0.01 0.03 0.02 0.03 0.03 0.01 0.01 0.00 0.01 0.01 0.04 0.08 0.08 0.06 0.06 0.04 0.04 0.03 0.03 0.02 0.01 0.00 0.00 0.00 0.00 0.00 0.00 0.00 0.00 0.00 0.00 0.01 0.00 0.00 0.00 0.00 0.00 0.00 0.00 0.00 0.00 0.00 0.00 0.00 0.00 0.00 0.00 0.00 0.00
0.00 0.00 0.00 0.00 0.01 0.02 0.02 0.02 0.01 0.01 0.01 0.01 0.01 0.00 0.01 0.02 0.02 0.02 0.03 0.02 0.02 0.02 0.01 0.01 0.01 0.01 0.00 0.00 0.00 0.00 0.00 0.00 0.00 0.00 0.00 0.00 0.00 0.00 0.00 0.00 0.00 0.00 0.00 0.00 0.00 0.00 0.00 0.00 0.00 0.00 0.00 0.00 0.00 0.00
0.00 0.00 0.00 0.00 0.01 0.01 0.02 0.05 0.02 0.01 0.02 0.01 0.01 0.01 0.01 0.02 0.02 0.02 0.01 0.03 0.03 0.02 0.02 0.01 0.01 0.00 0.00 0.00 0.00 0.00 0.00 0.00 0.00 0.00 0.00 0.00 0.00 0.00 0.00 0.00 0.00 0.00 0.00 0.00 0.00 0.00 0.00 0.00 0.00 0.00 0.00 0.00 0.00 0.00
0.00 0.00 0.00 0.00 0.01 0.01 0.01 0.02 0.01 0.01 0.01 0.01 0.01 0.01 0.02 0.02 0.01 0.01 0.00 0.02 0.05 0.02 0.01 0.01 0.00 0.00 0.00 0.00 0.00 0.00 0.00 0.00 0.00 0.00 0.00 0.00 0.00 0.00 0.00 0.00 0.00 0.00 0.00 0.00 0.00 0.00 0.00 0.00 0.00 0.00 0.00 0.00 0.00 0.00

GFSWCAN_prec_precacc12_078.txt.gz
Total_Precipitation_Accumulation
0.04 0.03 0.03 0.03 0.05 0.05 0.07 0.08 0.09 0.11 0.16 0.12 0.07 0.10 0.17 0.19 0.49 1.37 1.32 0.39 0.19 0.25 0.07 0.01 0.02 0.03 0.02 0.01 0.03 0.01 0.08 0.10 0.12 0.09 0.08 0.03 0.01 0.01 0.00 0.03 0.20 0.23 0.15 0.06 0.06 0.06 0.02 0.00 0.00 0.00 0.00 0.00 0.00 0.00
0.04 0.05 0.04 0.03 0.06 0.05 0.06 0.07 0.07 0.10 0.11 0.18 0.11 0.15 0.16 0.17 0.31 0.82 1.64 0.89 0.18 0.28 0.20 0.06 0.04 0.04 0.02 0.00 0.00 0.01 0.02 0.02 0.03 0.05 0.03 0.03 0.03 0.03 0.00 0.00 0.02 0.17 0.18 0.12 0.03 0.01 0.01 0.01 0.00 0.00 0.00 0.00 0.00 0.00
0.10 0.06 0.04 0.04 0.11 0.08 0.06 0.13 0.16 0.10 0.07 0.12 0.15 0.16 0.20 0.23 0.32 0.43 1.02 0.70 0.51 0.81 0.54 0.15 0.05 0.02 0.06 0.00 0.00 0.08 0.03 0.00 0.00 0.00 0.05 0.07 0.05 0.02 0.02 0.00 0.00 0.00 0.02 0.09 0.06 0.02 0.04 0.03 0.03 0.00 0.00 0.00 0.00 0.00
0.16 0.07 0.05 0.05 0.08 0.07 0.06 0.08 0.18 0.11 0.07 0.07 0.16 0.17 0.29 0.40 0.37 0.26 0.47 0.40 0.72 1.07 0.57 0.12 0.04 0.03 0.02 0.03 0.02 0.04 0.02 0.01 0.03 0.02 0.09 0.17 0.06 0.02 0.01 0.00 0.00 0.00 0.00 0.00 0.01 0.00 0.02 0.01 0.01 0.02 0.01 0.00 0.00 0.00
0.19 0.11 0.03 0.04 0.07 0.05 0.08 0.16 0.19 0.12 0.08 0.09 0.22 0.30 0.51 0.66 0.43 0.20 0.16 0.28 0.57 0.26 0.15 0.03 0.04 0.01 0.02 0.07 0.09 0.06 0.03 0.08 0.17 0.22 0.19 0.22 0.02 0.04 0.03 0.02 0.00 0.00 0.00 0.00 0.00 0.00 0.00 0.00 0.00 0.00 0.00 0.00 0.00 0.00
0.21 0.09 0.05 0.04 0.05 0.10 0.17 0.24 0.21 0.17 0.14 0.19 0.39 0.61 0.75 0.63 0.47 0.35 0.67 0.70 0.41 0.24 0.10 0.05 0.02 0.02 0.06 0.07 0.15 0.16 0.05 0.11 0.17 0.30 0.19 0.19 0.14 0.06 0.05 0.02 0.00 0.00 0.00 0.00 0.00 0.00 0.00 0.00 0.01 0.00 0.00 0.00 0.00 0.00
0.14 0.10 0.09 0.07 0.06 0.08 0.12 0.16 0.19 0.21 0.24 0.47 0.65 0.63 0.50 0.49 0.37 0.28 0.37 0.44 0.41 0.29 0.07 0.04 0.06 0.05 0.10 0.15 0.15 0.21 0.17 0.15 0.17 0.33 0.37 0.14 0.09 0.14 0.09 0.02 0.00 0.00 0.00 0.00 0.00 0.00 0.00 0.00 0.00 0.00 0.00 0.00 0.00 0.00
0.15 0.12 0.10 0.09 0.08 0.09 0.13 0.16 0.21 0.31 0.46 0.54 0.50 0.51 0.55 0.39 0.30 0.15 0.01 0.02 0.18 0.26 0.04 0.06 0.17 0.13 0.19 0.24 0.16 0.16 0.23 0.37 0.20 0.29 0.24 0.29 0.20 0.21 0.16 0.02 0.00 0.00 0.01 0.00 0.00 0.00 0.00 0.00 0.00 0.00 0.00 0.00 0.00 0.00
0.12 0.14 0.15 0.12 0.10 0.10 0.11 0.15 0.22 0.32 0.43 0.53 0.59 0.55 0.44 0.36 0.40 0.11 0.07 0.16 0.12 0.06 0.04 0.10 0.27 0.35 0.59 0.32 0.14 0.17 0.23 0.43 0.25 0.19 0.17 0.21 0.28 0.18 0.07 0.08 0.07 0.01 0.00 0.00 0.00 0.00 0.01 0.01 0.00 0.00 0.00 0.00 0.00 0.00
0.19 0.18 0.21 0.27 0.25 0.18 0.15 0.15 0.17 0.20 0.27 0.27 0.24 0.30 0.70 0.54 0.14 0.19 0.26 0.27 0.12 0.04 0.06 0.04 0.22 0.47 0.85 0.59 0.22 0.17 0.21 0.29 0.25 0.16 0.17 0.14 0.12 0.15 0.11 0.10 0.05 0.01 0.00 0.00 0.00 0.00 0.00 0.00 0.00 0.00 0.00 0.00 0.00 0.00
0.19 0.19 0.21 0.27 0.37 0.46 0.45 0.36 0.26 0.16 0.09 0.05 0.14 0.51 0.67 0.24 0.17 0.13 0.12 0.08 0.08 0.04 0.02 0.02 0.18 0.49 0.70 0.51 0.27 0.21 0.22 0.15 0.24 0.19 0.18 0.19 0.09 0.08 0.11 0.11 0.05 0.03 0.02 0.01 0.00 0.00 0.00 0.00 0.00 0.00 0.00 0.00 0.00 0.00
0.15 0.14 0.17 0.18 0.16 0.16 0.13 0.08 0.03 0.01 0.01 0.03 0.06 0.07 0.06 0.10 0.09 0.04 0.02 0.03 0.02 0.02 0.03 0.05 0.39 0.64 0.52 0.50 0.32 0.31 0.22 0.11 0.06 0.09 0.15 0.14 0.20 0.12 0.06 0.08 0.06 0.04 0.04 0.03 0.01 0.01 0.01 0.00 0.00 0.01 0.03 0.06 0.09 0.13
0.06 0.04 0.02 0.01 0.00 0.01 0.00 0.01 0.01 0.02 0.05 0.05 0.02 0.03 0.11 0.12 0.07 0.07 0.05 0.04 0.03 0.05 0.01 0.06 0.36 0.61 0.58 0.62 0.38 0.51 0.25 0.16 0.07 0.08 0.09 0.11 0.08 0.14 0.08 0.10 0.12 0.03 0.02 0.02 0.04 0.06 0.05 0.05 0.06 0.06 0.10 0.18 0.18 0.19
0.01 0.00 0.00 0.00 0.00 0.04 0.05 0.02 0.02 0.03 0.06 0.04 0.03 0.11 0.13 0.10 0.19 0.17 0.08 0.04 0.03 0.02 0.02 0.03 0.07 0.18 0.45 0.53 0.35 0.45 0.30 0.25 0.15 0.10 0.10 0.10 0.10 0.13 0.14 0.12 0.15 0.12 0.12 0.12 0.15 0.15 0.13 0.10 0.12 0.16 0.17 0.17 0.10 0.13
0.01 0.01 0.03 0.06 0.12 0.16 0.08 0.03 0.02 0.02 0.01 0.01 0.04 0.07 0.09 0.17 0.13 0.09 0.05 0.03 0.04 0.02 0.04 0.03 0.04 0.07 0.25 0.45 0.28 0.46 0.38 0.28 0.19 0.12 0.14 0.14 0.12 0.16 0.24 0.24 0.21 0.23 0.24 0.27 0.30 0.27 0.29 0.26 0.21 0.27 0.26 0.19 0.10 0.10
0.00 0.03 0.08 0.08 0.04 0.01 0.01 0.01 0.01 0.00 0.00 0.00 0.04 0.07 0.07 0.09 0.06 0.04 0.04 0.09 0.08 0.05 0.05 0.13 0.07 0.09 0.16 0.21 0.16 0.22 0.14 0.10 0.14 0.16 0.17 0.14 0.16 0.19 0.22 0.27 0.31 0.33 0.31 0.30 0.31 0.28 0.29 0.25 0.18 0.20 0.20 0.15 0.12 0.08
0.00 0.00 0.00 0.00 0.00 0.00 0.00 0.00 0.00 0.00 0.01 0.02 0.06 0.06 0.07 0.07 0.08 0.07 0.09 0.16 0.13 0.13 0.06 0.10 0.08 0.05 0.05 0.02 0.03 0.05 0.12 0.17 0.18 0.21 0.22 0.21 0.24 0.27 0.25 0.23 0.27 0.27 0.29 0.27 0.27 0.22 0.21 0.18 0.12 0.07 0.09 0.10 0.05 0.03
0.01 0.00 0.00 0.00 0.00 0.00 0.00 0.01 0.01 0.01 0.02 0.04 0.06 0.11 0.06 0.08 0.07 0.07 0.09 0.16 0.21 0.09 0.01 0.02 0.03 0.02 0.02 0.04 0.09 0.16 0.12 0.15 0.16 0.21 0.30 0.35 0.33 0.33 0.28 0.25 0.28 0.23 0.23 0.23 0.17 0.16 0.12 0.08 0.05 0.04 0.03 0.03 0.01 0.01
0.01 0.01 0.01 0.00 0.00 0.02 0.06 0.07 0.04 0.04 0.06 0.07 0.10 0.09 0.08 0.12 0.15 0.16 0.18 0.21 0.15 0.06 0.04 0.08 0.09 0.10 0.11 0.10 0.14 0.24 0.20 0.15 0.17 0.24 0.32 0.40 0.38 0.35 0.34 0.28 0.25 0.24 0.19 0.17 0.11 0.09 0.09 0.06 0.04 0.02 0.01 0.01 0.01 0.02
0.05 0.04 0.02 0.01 0.00 0.03 0.06 0.11 0.09 0.09 0.14 0.13 0.16 0.15 0.16 0.20 0.19 0.17 0.17 0.18 0.16 0.14 0.14 0.12 0.16 0.18 0.20 0.21 0.25 0.31 0.22 0.20 0.17 0.17 0.29 0.38 0.42 0.32 0.33 0.27 0.26 0.21 0.15 0.12 0.09 0.06 0.03 0.02 0.01 0.01 0.01 0.01 0.01 0.02
0.08 0.05 0.03 0.01 0.00 0.01 0.08 0.15 0.12 0.12 0.15 0.17 0.18 0.16 0.18 0.13 0.11 0.11 0.11 0.09 0.08 0.12 0.15 0.18 0.17 0.18 0.20 0.25 0.27 0.22 0.24 0.17 0.22 0.19 0.22 0.30 0.39 0.28 0.28 0.26 0.18 0.14 0.09 0.08 0.04 0.03 0.01 0.01 0.01 0.00 0.01 0.01 0.01 0.01
0.03 0.03 0.02 0.00 0.00 0.00 0.09 0.12 0.09 0.12 0.08 0.13 0.13 0.10 0.12 0.12 0.10 0.09 0.05 0.06 0.13 0.20 0.19 0.19 0.19 0.18 0.17 0.21 0.25 0.25 0.29 0.22 0.24 0.25 0.28 0.25 0.26 0.25 0.23 0.21 0.13 0.09 0.05 0.03 0.01 0.01 0.01 0.00 0.00 0.00 0.00 0.00 0.00 0.00
0.00 0.00 0.00 0.00 0.00 0.00 0.04 0.06 0.08 0.15 0.16 0.14 0.09 0.07 0.08 0.08 0.07 0.03 0.06 0.12 0.20 0.26 0.21 0.16 0.18 0.19 0.20 0.25 0.20 0.24 0.30 0.22 0.24 0.28 0.29 0.26 0.23 0.20 0.14 0.10 0.05 0.02 0.01 0.00 0.00 0.00 0.00 0.00 0.00 0.00 0.00 0.00 0.00 0.00
0.00 0.00 0.00 0.00 0.00 0.00 0.00 0.00 0.01 0.01 0.01 0.01 0.01 0.03 0.04 0.04 0.01 0.01 0.06 0.14 0.20 0.16 0.17 0.20 0.16 0.17 0.16 0.15 0.18 0.23 0.31 0.24 0.19 0.20 0.21 0.15 0.11 0.10 0.05 0.02 0.00 0.00 0.00 0.00 0.00 0.00 0.00 0.00 0.00 0.00 0.00 0.00 0.00 0.00
0.00 0.00 0.00 0.00 0.00 0.00 0.00 0.00 0.00 0.01 0.01 0.00 0.01 0.02 0.03 0.01 0.00 0.01 0.03 0.09 0.09 0.10 0.12 0.12 0.11 0.13 0.14 0.17 0.19 0.19 0.20 0.18 0.15 0.11 0.12 0.06 0.04 0.02 0.01 0.00 0.00 0.00 0.00 0.00 0.00 0.00 0.00 0.00 0.00 0.00 0.00 0.00 0.00 0.00
0.00 0.00 0.00 0.01 0.01 0.00 0.01 0.01 0.01 0.01 0.01 0.01 0.01 0.01 0.00 0.00 0.01 0.03 0.05 0.07 0.06 0.09 0.10 0.10 0.10 0.10 0.12 0.13 0.13 0.12 0.11 0.09 0.07 0.06 0.06 0.02 0.00 0.00 0.00 0.00 0.00 0.01 0.00 0.00 0.00 0.00 0.00 0.00 0.00 0.00 0.00 0.00 0.00 0.00
0.00 0.00 0.00 0.00 0.01 0.00 0.00 0.00 0.00 0.00 0.01 0.02 0.01 0.00 0.00 0.00 0.02 0.05 0.05 0.05 0.05 0.08 0.08 0.08 0.06 0.06 0.07 0.06 0.04 0.02 0.01 0.01 0.01 0.01 0.00 0.00 0.00 0.00 0.00 0.00 0.00 0.01 0.00 0.00 0.00 0.00 0.00 0.00 0.00 0.00 0.00 0.00 0.00 0.00
0.00 0.00 0.00 0.00 0.00 0.00 0.00 0.00 0.01 0.01 0.01 0.01 0.01 0.00 0.01 0.02 0.05 0.06 0.04 0.05 0.05 0.05 0.06 0.06 0.05 0.04 0.03 0.02 0.01 0.00 0.00 0.00 0.00 0.00 0.00 0.00 0.00 0.00 0.00 0.00 0.00 0.00 0.00 0.00 0.00 0.00 0.00 0.00 0.00 0.00 0.00 0.00 0.00 0.00
0.00 0.00 0.00 0.00 0.00 0.00 0.01 0.01 0.01 0.01 0.01 0.02 0.02 0.01 0.02 0.07 0.08 0.04 0.04 0.04 0.05 0.04 0.04 0.04 0.04 0.02 0.01 0.01 0.01 0.00 0.01 0.00 0.00 0.00 0.00 0.00 0.00 0.01 0.00 0.00 0.00 0.01 0.00 0.00 0.00 0.00 0.00 0.00 0.00 0.00 0.00 0.00 0.00 0.00
0.00 0.00 0.00 0.00 0.00 0.01 0.03 0.02 0.03 0.02 0.01 0.00 0.00 0.01 0.02 0.05 0.09 0.09 0.07 0.06 0.05 0.05 0.05 0.04 0.04 0.01 0.00 0.00 0.00 0.00 0.00 0.00 0.00 0.00 0.00 0.00 0.01 0.01 0.00 0.00 0.00 0.00 0.00 0.00 0.00 0.00 0.00 0.00 0.00 0.00 0.00 0.00 0.00 0.00
0.00 0.00 0.00 0.00 0.01 0.02 0.02 0.02 0.01 0.01 0.01 0.01 0.01 0.00 0.02 0.02 0.02 0.02 0.03 0.03 0.02 0.02 0.02 0.02 0.02 0.02 0.00 0.00 0.00 0.00 0.00 0.00 0.00 0.00 0.00 0.00 0.00 0.00 0.00 0.00 0.00 0.00 0.00 0.00 0.00 0.00 0.00 0.00 0.00 0.00 0.00 0.00 0.00 0.00
0.00 0.00 0.00 0.00 0.01 0.01 0.02 0.06 0.02 0.02 0.02 0.01 0.01 0.01 0.02 0.02 0.01 0.02 0.01 0.04 0.04 0.03 0.03 0.02 0.01 0.00 0.00 0.00 0.00 0.00 0.00 0.00 0.00 0.00 0.00 0.00 0.00 0.00 0.00 0.00 0.00 0.00 0.00 0.00 0.00 0.00 0.00 0.00 0.00 0.00 0.00 0.00 0.00 0.00
0.00 0.00 0.00 0.00 0.01 0.01 0.01 0.02 0.01 0.01 0.01 0.01 0.02 0.02 0.02 0.02 0.02 0.02 0.01 0.02 0.05 0.02 0.02 0.01 0.00 0.00 0.00 0.00 0.00 0.00 0.00 0.00 0.00 0.00 0.00 0.00 0.00 0.00 0.00 0.00 0.00 0.00 0.00 0.00 0.00 0.00 0.00 0.00 0.00 0.00 0.00 0.00 0.00 0.00

GFSWCAN_prec_precacc12_081.txt.gz
Total_Precipitation_Accumulation
0.02 0.02 0.02 0.03 0.02 0.03 0.04 0.05 0.07 0.08 0.11 0.09 0.06 0.03 0.03 0.07 0.35 1.33 1.44 0.50 0.34 0.36 0.09 0.01 0.01 0.01 0.01 0.00 0.01 0.00 0.03 0.06 0.10 0.08 0.08 0.03 0.01 0.01 0.00 0.02 0.16 0.22 0.29 0.24 0.21 0.10 0.02 0.00 0.01 0.00 0.01 0.00 0.00 0.00
0.04 0.05 0.04 0.03 0.03 0.03 0.04 0.04 0.04 0.06 0.08 0.15 0.10 0.08 0.05 0.05 0.08 0.75 1.77 1.08 0.31 0.33 0.22 0.04 0.01 0.00 0.00 0.00 0.00 0.00 0.01 0.02 0.03 0.05 0.02 0.02 0.02 0.03 0.00 0.00 0.01 0.16 0.18 0.20 0.20 0.11 0.01 0.01 0.01 0.02 0.00 0.00 0.00 0.00
0.06 0.05 0.03 0.03 0.04 0.03 0.05 0.10 0.12 0.06 0.06 0.12 0.16 0.13 0.11 0.08 0.08 0.33 1.13 0.78 0.78 1.02 0.63 0.13 0.03 0.00 0.00 0.00 0.00 0.06 0.01 0.00 0.01 0.01 0.05 0.06 0.04 0.02 0.01 0.00 0.00 0.00 0.03 0.10 0.07 0.02 0.04 0.03 0.03 0.01 0.00 0.00 0.00 0.00
0.09 0.07 0.05 0.04 0.04 0.05 0.05 0.07 0.16 0.08 0.06 0.09 0.18 0.15 0.18 0.17 0.17 0.24 0.50 0.44 0.93 1.30 0.69 0.15 0.00 0.00 0.00 0.00 0.01 0.04 0.02 0.03 0.05 0.03 0.08 0.16 0.06 0.02 0.01 0.00 0.00 0.00 0.01 0.01 0.01 0.00 0.02 0.01 0.01 0.02 0.01 0.00 0.00 0.00
0.17 0.09 0.04 0.04 0.08 0.05 0.08 0.13 0.18 0.12 0.08 0.09 0.20 0.20 0.29 0.39 0.30 0.24 0.17 0.30 0.69 0.42 0.26 0.03 0.01 0.00 0.00 0.00 0.02 0.04 0.05 0.09 0.15 0.21 0.19 0.22 0.03 0.04 0.03 0.02 0.00 0.00 0.00 0.00 0.00 0.00 0.00 0.00 0.00 0.00 0.00 0.00 0.00 0.00
0.21 0.02 0.02 0.04 0.06 0.11 0.17 0.24 0.21 0.15 0.10 0.13 0.28 0.37 0.42 0.51 0.60 0.60 0.77 0.73 0.47 0.29 0.26 0.07 0.01 0.01 0.02 0.02 0.07 0.10 0.07 0.14 0.17 0.27 0.18 0.19 0.15 0.09 0.06 0.02 0.00 0.00 0.00 0.00 0.00 0.00 0.00 0.00 0.01 0.00 0.00 0.00 0.00 0.00
0.12 0.04 0.02 0.03 0.02 0.05 0.08 0.11 0.13 0.15 0.18 0.33 0.40 0.39 0.41 0.72 0.74 0.43 0.42 0.45 0.42 0.35 0.32 0.09 0.04 0.03 0.08 0.08 0.09 0.17 0.18 0.17 0.17 0.29 0.32 0.12 0.08 0.15 0.09 0.02 0.00 0.00 0.00 0.00 0.00 0.00 0.00 0.00 0.01 0.01 0.01 0.01 0.01 0.00
0.12 0.09 0.04 0.02 0.01 0.03 0.06 0.11 0.17 0.26 0.38 0.41 0.43 0.50 0.64 0.68 0.40 0.15 0.01 0.02 0.19 0.35 0.30 0.24 0.08 0.04 0.09 0.15 0.09 0.09 0.18 0.34 0.19 0.28 0.22 0.28 0.18 0.19 0.16 0.02 0.00 0.00 0.01 0.00 0.00 0.01 0.00 0.00 0.01 0.01 0.01 0.01 0.01 0.00
0.10 0.12 0.12 0.08 0.06 0.06 0.08 0.13 0.20 0.32 0.50 0.65 0.73 0.72 0.66 0.59 0.53 0.13 0.07 0.18 0.16 0.24 0.13 0.05 0.03 0.13 0.23 0.17 0.11 0.08 0.13 0.38 0.21 0.17 0.16 0.19 0.27 0.18 0.07 0.08 0.07 0.01 0.00 0.00 0.00 0.01 0.02 0.03 0.03 0.02 0.02 0.01 0.00 0.00
0.19 0.18 0.22 0.26 0.24 0.18 0.17 0.21 0.27 0.36 0.45 0.44 0.40 0.46 0.96 0.67 0.20 0.22 0.33 0.48 0.31 0.22 0.10 0.02 0.00 0.06 0.39 0.47 0.17 0.15 0.15 0.26 0.24 0.15 0.15 0.12 0.11 0.15 0.11 0.10 0.05 0.01 0.00 0.00 0.00 0.00 0.00 0.01 0.02 0.02 0.01 0.00 0.00 0.00
0.20 0.20 0.24 0.31 0.41 0.47 0.47 0.40 0.29 0.18 0.12 0.08 0.19 0.68 0.85 0.33 0.19 0.19 0.31 0.29 0.19 0.10 0.03 0.01 0.00 0.02 0.16 0.35 0.24 0.17 0.19 0.13 0.23 0.18 0.17 0.19 0.08 0.08 0.11 0.11 0.05 0.04 0.02 0.01 0.00 0.00 0.00 0.00 0.00 0.00 0.00 0.00 0.00 0.00
0.16 0.16 0.21 0.22 0.21 0.18 0.15 0.08 0.03 0.01 0.01 0.03 0.15 0.22 0.19 0.21 0.12 0.13 0.12 0.07 0.03 0.01 0.02 0.01 0.01 0.06 0.22 0.41 0.31 0.30 0.21 0.12 0.06 0.09 0.14 0.12 0.18 0.12 0.06 0.08 0.06 0.06 0.06 0.04 0.02 0.01 0.01 0.01 0.00 0.01 0.00 0.00 0.00 0.01
0.08 0.04 0.02 0.01 0.01 0.01 0.01 0.02 0.02 0.02 0.02 0.01 0.02 0.04 0.05 0.05 0.03 0.05 0.02 0.01 0.02 0.03 0.01 0.01 0.13 0.35 0.50 0.60 0.38 0.51 0.26 0.17 0.07 0.10 0.09 0.09 0.05 0.13 0.08 0.10 0.13 0.06 0.05 0.07 0.02 0.01 0.01 0.02 0.03 0.04 0.05 0.06 0.06 0.09
0.00 0.00 0.00 0.00 0.00 0.00 0.00 0.00 0.00 0.00 0.01 0.01 0.01 0.03 0.06 0.09 0.19 0.17 0.08 0.04 0.03 0.02 0.01 0.02 0.06 0.16 0.44 0.53 0.35 0.45 0.32 0.33 0.20 0.13 0.08 0.07 0.05 0.06 0.10 0.11 0.19 0.22 0.16 0.20 0.29 0.14 0.08 0.08 0.11 0.14 0.15 0.15 0.09 0.13
0.00 0.00 0.00 0.02 0.02 0.01 0.00 0.01 0.01 0.01 0.00 0.00 0.02 0.05 0.08 0.19 0.16 0.12 0.07 0.05 0.05 0.02 0.02 0.03 0.04 0.07 0.25 0.45 0.30 0.48 0.45 0.41 0.27 0.13 0.13 0.13 0.08 0.09 0.14 0.17 0.20 0.31 0.35 0.36 0.45 0.43 0.30 0.26 0.22 0.31 0.32 0.25 0.16 0.16
0.00 0.02 0.06 0.03 0.01 0.00 0.01 0.01 0.01 0.00 0.00 0.00 0.03 0.06 0.07 0.11 0.07 0.05 0.05 0.10 0.09 0.05 0.05 0.17 0.08 0.14 0.22 0.25 0.21 0.27 0.18 0.11 0.15 0.15 0.16 0.14 0.14 0.14 0.16 0.22 0.29 0.34 0.35 0.33 0.32 0.29 0.30 0.27 0.23 0.28 0.31 0.26 0.23 0.16
0.00 0.00 0.00 0.00 0.00 0.00 0.00 0.00 0.00 0.00 0.00 0.01 0.05 0.05 0.06 0.07 0.08 0.08 0.13 0.18 0.16 0.16 0.12 0.17 0.13 0.08 0.10 0.06 0.07 0.10 0.15 0.17 0.17 0.18 0.20 0.20 0.20 0.22 0.21 0.22 0.27 0.28 0.31 0.30 0.30 0.26 0.27 0.27 0.21 0.15 0.19 0.21 0.15 0.11
0.00 0.00 0.00 0.00 0.00 0.00 0.00 0.00 0.00 0.00 0.01 0.03 0.05 0.09 0.03 0.05 0.05 0.07 0.12 0.20 0.24 0.10 0.03 0.06 0.02 0.01 0.04 0.06 0.11 0.19 0.15 0.14 0.15 0.22 0.31 0.36 0.31 0.31 0.28 0.26 0.30 0.27 0.27 0.28 0.23 0.22 0.19 0.15 0.11 0.12 0.10 0.11 0.07 0.06
0.00 0.00 0.00 0.00 0.00 0.00 0.00 0.00 0.00 0.00 0.02 0.02 0.04 0.03 0.02 0.04 0.06 0.07 0.09 0.15 0.06 0.01 0.01 0.02 0.01 0.02 0.05 0.07 0.10 0.20 0.14 0.10 0.14 0.21 0.31 0.39 0.37 0.33 0.33 0.31 0.29 0.28 0.25 0.23 0.16 0.15 0.16 0.14 0.11 0.08 0.07 0.05 0.04 0.04
0.00 0.00 0.00 0.00 0.00 0.00 0.01 0.03 0.02 0.03 0.05 0.04 0.06 0.04 0.04 0.07 0.05 0.03 0.03 0.03 0.01 0.01 0.02 0.03 0.08 0.11 0.13 0.16 0.21 0.25 0.16 0.15 0.12 0.15 0.26 0.36 0.42 0.36 0.38 0.32 0.32 0.28 0.20 0.18 0.15 0.12 0.08 0.07 0.06 0.04 0.02 0.01 0.01 0.02
0.00 0.00 0.00 0.00 0.00 0.00 0.05 0.10 0.08 0.09 0.11 0.12 0.12 0.08 0.09 0.05 0.03 0.03 0.03 0.03 0.03 0.06 0.08 0.13 0.14 0.16 0.20 0.25 0.25 0.17 0.20 0.14 0.18 0.16 0.21 0.29 0.38 0.31 0.34 0.33 0.26 0.23 0.17 0.15 0.10 0.09 0.06 0.04 0.03 0.01 0.00 0.01 0.01 0.00
0.01 0.01 0.00 0.00 0.00 0.00 0.09 0.11 0.07 0.10 0.07 0.11 0.11 0.08 0.08 0.08 0.06 0.06 0.03 0.04 0.10 0.16 0.16 0.17 0.17 0.17 0.17 0.20 0.23 0.22 0.25 0.18 0.22 0.24 0.27 0.25 0.27 0.28 0.28 0.27 0.19 0.14 0.10 0.08 0.05 0.03 0.02 0.01 0.00 0.00 0.00 0.00 0.00 0.00
0.00 0.00 0.00 0.00 0.00 0.00 0.06 0.10 0.09 0.16 0.16 0.13 0.09 0.07 0.08 0.07 0.07 0.03 0.06 0.11 0.20 0.26 0.19 0.15 0.17 0.17 0.18 0.23 0.18 0.21 0.27 0.20 0.24 0.28 0.29 0.28 0.26 0.24 0.18 0.16 0.11 0.07 0.04 0.03 0.01 0.00 0.00 0.00 0.00 0.00 0.00 0.00 0.00 0.00
0.00 0.00 0.00 0.00 0.00 0.00 0.00 0.00 0.00 0.01 0.00 0.01 0.02 0.04 0.05 0.04 0.02 0.01 0.07 0.14 0.20 0.16 0.16 0.19 0.14 0.15 0.15 0.13 0.17 0.21 0.28 0.22 0.19 0.21 0.24 0.19 0.16 0.16 0.11 0.06 0.03 0.01 0.00 0.00 0.00 0.00 0.00 0.00 0.00 0.00 0.00 0.00 0.00 0.00
0.00 0.00 0.00 0.00 0.00 0.00 0.00 0.00 0.00 0.00 0.01 0.00 0.01 0.02 0.03 0.01 0.00 0.00 0.03 0.07 0.07 0.08 0.09 0.09 0.09 0.11 0.12 0.16 0.19 0.20 0.21 0.20 0.17 0.14 0.17 0.13 0.10 0.07 0.04 0.01 0.01 0.00 0.00 0.00 0.00 0.00 0.00 0.00 0.00 0.00 0.00 0.00 0.00 0.00
0.01 0.01 0.00 0.01 0.01 0.00 0.01 0.01 0.01 0.01 0.01 0.01 0.02 0.02 0.00 0.00 0.01 0.02 0.05 0.06 0.05 0.07 0.08 0.07 0.07 0.07 0.10 0.12 0.12 0.13 0.15 0.13 0.11 0.09 0.11 0.06 0.02 0.01 0.00 0.00 0.00 0.01 0.00 0.00 0.00 0.00 0.00 0.00 0.00 0.00 0.00 0.00 0.00 0.00
0.00 0.00 0.00 0.01 0.02 0.00 0.00 0.00 0.00 0.00 0.00 0.02 0.01 0.00 0.00 0.00 0.02 0.04 0.05 0.04 0.04 0.08 0.07 0.06 0.05 0.05 0.07 0.07 0.06 0.05 0.04 0.03 0.03 0.03 0.03 0.01 0.00 0.00 0.00 0.00 0.00 0.02 0.00 0.00 0.00 0.00 0.00 0.00 0.00 0.00 0.00 0.00 0.00 0.00
0.00 0.00 0.00 0.00 0.00 0.00 0.00 0.00 0.00 0.01 0.01 0.01 0.01 0.00 0.01 0.02 0.04 0.06 0.04 0.04 0.04 0.04 0.05 0.06 0.06 0.05 0.05 0.04 0.02 0.01 0.00 0.00 0.00 0.00 0.00 0.00 0.00 0.00 0.00 0.00 0.00 0.00 0.00 0.00 0.00 0.00 0.00 0.00 0.00 0.00 0.00 0.00 0.00 0.00
0.00 0.00 0.00 0.00 0.00 0.00 0.01 0.01 0.01 0.01 0.01 0.02 0.01 0.01 0.02 0.07 0.07 0.03 0.04 0.03 0.04 0.03 0.04 0.05 0.05 0.03 0.03 0.02 0.01 0.01 0.01 0.00 0.00 0.00 0.00 0.00 0.00 0.01 0.00 0.00 0.00 0.01 0.00 0.00 0.00 0.00 0.00 0.00 0.00 0.00 0.00 0.00 0.00 0.00
0.00 0.00 0.00 0.00 0.01 0.01 0.03 0.02 0.02 0.02 0.00 0.00 0.00 0.01 0.02 0.05 0.11 0.09 0.07 0.06 0.04 0.04 0.05 0.05 0.04 0.01 0.00 0.00 0.00 0.00 0.00 0.00 0.00 0.00 0.00 0.00 0.01 0.01 0.00 0.00 0.00 0.00 0.00 0.00 0.00 0.00 0.00 0.00 0.00 0.00 0.00 0.00 0.00 0.00
0.00 0.00 0.00 0.00 0.01 0.02 0.01 0.01 0.01 0.01 0.01 0.01 0.00 0.00 0.01 0.03 0.03 0.03 0.03 0.03 0.02 0.02 0.02 0.02 0.03 0.02 0.00 0.00 0.00 0.00 0.00 0.00 0.00 0.00 0.00 0.00 0.00 0.00 0.00 0.00 0.00 0.00 0.00 0.00 0.00 0.00 0.00 0.00 0.00 0.00 0.00 0.00 0.00 0.00
0.00 0.00 0.00 0.00 0.01 0.01 0.02 0.06 0.02 0.01 0.02 0.01 0.01 0.00 0.01 0.02 0.01 0.01 0.02 0.04 0.05 0.03 0.03 0.02 0.01 0.01 0.00 0.00 0.00 0.00 0.00 0.00 0.00 0.00 0.00 0.00 0.00 0.00 0.00 0.00 0.00 0.00 0.00 0.00 0.00 0.00 0.00 0.00 0.00 0.00 0.00 0.00 0.00 0.00
0.00 0.00 0.00 0.00 0.00 0.01 0.01 0.02 0.01 0.01 0.01 0.01 0.02 0.02 0.02 0.02 0.02 0.01 0.01 0.03 0.05 0.02 0.02 0.01 0.00 0.00 0.00 0.00 0.00 0.00 0.00 0.00 0.00 0.00 0.00 0.00 0.00 0.00 0.00 0.00 0.00 0.00 0.00 0.00 0.00 0.00 0.00 0.00 0.00 0.00 0.00 0.00 0.00 0.00

GFSWCAN_prec_precacc12_084.txt.gz
Total_Precipitation_Accumulation
0.05 0.04 0.04 0.03 0.03 0.03 0.03 0.04 0.04 0.04 0.05 0.05 0.05 0.03 0.03 0.10 0.30 0.87 1.39 0.58 0.42 0.48 0.12 0.00 0.01 0.00 0.00 0.00 0.01 0.01 0.03 0.00 0.02 0.04 0.05 0.03 0.01 0.01 0.00 0.01 0.07 0.19 0.33 0.26 0.21 0.12 0.04 0.04 0.09 0.05 0.03 0.01 0.00 0.00
0.05 0.06 0.05 0.04 0.03 0.03 0.03 0.03 0.03 0.03 0.05 0.07 0.08 0.07 0.05 0.04 0.09 0.57 1.56 1.15 0.32 0.45 0.29 0.04 0.01 0.00 0.00 0.00 0.02 0.03 0.01 0.00 0.00 0.03 0.01 0.01 0.01 0.00 0.00 0.00 0.00 0.03 0.10 0.16 0.20 0.14 0.07 0.03 0.05 0.04 0.03 0.03 0.00 0.00
0.05 0.05 0.03 0.03 0.03 0.02 0.03 0.04 0.05 0.05 0.06 0.09 0.11 0.12 0.12 0.07 0.07 0.26 1.18 0.86 0.86 1.12 0.68 0.11 0.03 0.00 0.00 0.00 0.01 0.04 0.00 0.00 0.01 0.01 0.06 0.05 0.02 0.00 0.01 0.00 0.00 0.00 0.04 0.11 0.07 0.01 0.03 0.04 0.03 0.01 0.01 0.01 0.01 0.00
0.06 0.07 0.05 0.04 0.04 0.05 0.04 0.04 0.07 0.08 0.07 0.08 0.15 0.15 0.18 0.15 0.10 0.17 0.51 0.62 0.90 1.35 0.70 0.17 0.00 0.00 0.00 0.00 0.01 0.03 0.01 0.04 0.06 0.05 0.08 0.13 0.05 0.02 0.00 0.00 0.00 0.00 0.01 0.02 0.02 0.01 0.01 0.01 0.01 0.02 0.01 0.00 0.00 0.01
0.16 0.15 0.09 0.06 0.07 0.04 0.05 0.08 0.12 0.11 0.09 0.09 0.20 0.21 0.22 0.26 0.20 0.20 0.12 0.35 0.78 0.48 0.32 0.04 0.00 0.00 0.00 0.00 0.02 0.04 0.04 0.07 0.07 0.15 0.21 0.24 0.05 0.05 0.03 0.02 0.00 0.00 0.00 0.00 0.00 0.00 0.00 0.00 0.00 0.00 0.00 0.00 0.00 0.00
0.19 0.04 0.03 0.06 0.07 0.07 0.12 0.19 0.17 0.14 0.11 0.14 0.22 0.22 0.22 0.36 0.49 0.61 0.68 0.58 0.46 0.31 0.35 0.17 0.02 0.00 0.01 0.01 0.04 0.04 0.05 0.09 0.09 0.11 0.15 0.20 0.15 0.10 0.07 0.02 0.00 0.00 0.00 0.00 0.00 0.00 0.00 0.00 0.01 0.00 0.00 0.00 0.00 0.00
0.06 0.03 0.05 0.05 0.03 0.04 0.06 0.08 0.11 0.12 0.16 0.20 0.20 0.23 0.31 0.61 0.84 0.67 0.43 0.34 0.38 0.35 0.41 0.24 0.07 0.02 0.07 0.06 0.06 0.06 0.08 0.11 0.12 0.17 0.27 0.11 0.08 0.16 0.10 0.02 0.00 0.00 0.00 0.00 0.00 0.00 0.00 0.00 0.01 0.01 0.01 0.01 0.01 0.01
0.07 0.04 0.02 0.02 0.02 0.03 0.04 0.09 0.16 0.22 0.24 0.23 0.27 0.33 0.51 0.76 0.72 0.21 0.02 0.02 0.19 0.37 0.40 0.33 0.15 0.05 0.08 0.14 0.09 0.05 0.07 0.12 0.21 0.14 0.15 0.23 0.13 0.14 0.15 0.02 0.00 0.00 0.01 0.00 0.00 0.01 0.00 0.00 0.01 0.01 0.01 0.01 0.01 0.01
0.05 0.05 0.05 0.03 0.03 0.03 0.05 0.11 0.17 0.28 0.41 0.54 0.62 0.72 0.89 1.03 0.93 0.24 0.08 0.19 0.17 0.26 0.20 0.20 0.19 0.09 0.07 0.09 0.09 0.05 0.08 0.16 0.12 0.11 0.11 0.14 0.21 0.15 0.07 0.08 0.07 0.01 0.00 0.00 0.00 0.01 0.02 0.03 0.03 0.02 0.02 0.02 0.01 0.00
0.14 0.12 0.16 0.22 0.22 0.16 0.18 0.27 0.42 0.61 0.70 0.66 0.60 0.77 1.38 0.93 0.30 0.29 0.43 0.58 0.39 0.26 0.09 0.05 0.06 0.04 0.07 0.08 0.08 0.16 0.08 0.17 0.20 0.12 0.12 0.09 0.11 0.15 0.11 0.10 0.05 0.01 0.00 0.00 0.00 0.00 0.00 0.01 0.02 0.02 0.01 0.00 0.00 0.00
0.19 0.20 0.22 0.30 0.42 0.53 0.58 0.56 0.47 0.35 0.22 0.16 0.30 0.91 1.06 0.38 0.23 0.27 0.39 0.43 0.35 0.16 0.06 0.03 0.00 0.00 0.01 0.04 0.08 0.11 0.10 0.09 0.21 0.16 0.14 0.18 0.08 0.07 0.11 0.11 0.05 0.04 0.02 0.01 0.00 0.00 0.00 0.00 0.00 0.00 0.00 0.00 0.00 0.00
0.16 0.16 0.18 0.19 0.20 0.20 0.14 0.07 0.04 0.02 0.02 0.04 0.24 0.36 0.27 0.31 0.18 0.16 0.17 0.16 0.09 0.04 0.04 0.03 0.00 0.00 0.00 0.06 0.20 0.23 0.09 0.07 0.04 0.08 0.13 0.12 0.18 0.12 0.06 0.09 0.06 0.06 0.06 0.04 0.02 0.01 0.01 0.01 0.01 0.00 0.00 0.00 0.00 0.00
0.08 0.04 0.02 0.01 0.02 0.03 0.04 0.03 0.02 0.02 0.02 0.02 0.04 0.06 0.15 0.10 0.06 0.07 0.04 0.03 0.02 0.02 0.01 0.01 0.00 0.01 0.04 0.09 0.23 0.34 0.19 0.12 0.06 0.10 0.09 0.09 0.05 0.13 0.09 0.10 0.13 0.06 0.06 0.07 0.02 0.01 0.00 0.00 0.00 0.01 0.02 0.03 0.03 0.04
0.01 0.00 0.00 0.00 0.01 0.01 0.01 0.00 0.01 0.03 0.03 0.02 0.01 0.02 0.06 0.05 0.14 0.14 0.07 0.05 0.04 0.01 0.00 0.00 0.00 0.01 0.13 0.24 0.23 0.27 0.28 0.32 0.23 0.13 0.08 0.06 0.05 0.05 0.08 0.09 0.16 0.18 0.13 0.18 0.27 0.13 0.06 0.03 0.05 0.08 0.12 0.13 0.08 0.11
0.00 0.00 0.00 0.00 0.00 0.00 0.00 0.00 0.00 0.00 0.00 0.00 0.00 0.03 0.07 0.17 0.15 0.14 0.09 0.06 0.06 0.01 0.00 0.01 0.02 0.04 0.20 0.42 0.29 0.47 0.48 0.42 0.27 0.12 0.12 0.10 0.07 0.06 0.09 0.11 0.14 0.22 0.27 0.27 0.41 0.57 0.51 0.40 0.27 0.33 0.33 0.27 0.17 0.19
0.00 0.00 0.00 0.00 0.00 0.00 0.00 0.00 0.00 0.00 0.00 0.00 0.02 0.05 0.07 0.11 0.08 0.07 0.08 0.11 0.10 0.03 0.03 0.15 0.08 0.14 0.21 0.24 0.22 0.27 0.18 0.10 0.13 0.14 0.14 0.12 0.14 0.13 0.13 0.16 0.21 0.27 0.30 0.36 0.39 0.44 0.57 0.63 0.52 0.38 0.35 0.30 0.28 0.21
0.00 0.00 0.00 0.00 0.00 0.00 0.00 0.00 0.00 0.00 0.00 0.01 0.04 0.05 0.06 0.06 0.08 0.08 0.15 0.19 0.17 0.15 0.13 0.18 0.14 0.09 0.11 0.06 0.07 0.09 0.12 0.14 0.16 0.17 0.17 0.18 0.22 0.22 0.19 0.19 0.23 0.26 0.30 0.33 0.38 0.37 0.39 0.38 0.30 0.20 0.25 0.29 0.20 0.16
0.00 0.00 0.00 0.00 0.00 0.00 0.00 0.00 0.00 0.00 0.01 0.03 0.05 0.09 0.03 0.05 0.05 0.07 0.14 0.23 0.25 0.11 0.06 0.08 0.04 0.02 0.08 0.09 0.11 0.19 0.17 0.16 0.16 0.21 0.25 0.30 0.27 0.29 0.27 0.25 0.28 0.26 0.29 0.32 0.30 0.31 0.28 0.23 0.17 0.18 0.15 0.16 0.11 0.11
0.00 0.00 0.00 0.00 0.00 0.00 0.00 0.00 0.00 0.00 0.02 0.02 0.03 0.03 0.02 0.04 0.06 0.09 0.16 0.23 0.13 0.06 0.05 0.05 0.03 0.03 0.07 0.09 0.11 0.18 0.14 0.12 0.15 0.20 0.27 0.34 0.34 0.31 0.32 0.31 0.30 0.30 0.28 0.28 0.22 0.20 0.23 0.20 0.16 0.13 0.11 0.10 0.07 0.07
0.00 0.00 0.00 0.00 0.00 0.00 0.00 0.00 0.00 0.00 0.02 0.02 0.03 0.01 0.01 0.04 0.03 0.02 0.03 0.04 0.03 0.01 0.01 0.03 0.06 0.08 0.09 0.11 0.15 0.16 0.12 0.12 0.08 0.10 0.21 0.32 0.41 0.36 0.37 0.32 0.33 0.31 0.25 0.24 0.22 0.18 0.14 0.12 0.12 0.09 0.07 0.04 0.02 0.02
0.00 0.00 0.00 0.00 0.00 0.00 0.02 0.04 0.03 0.03 0.05 0.05 0.06 0.04 0.03 0.01 0.00 0.00 0.00 0.00 0.00 0.03 0.05 0.09 0.09 0.11 0.16 0.19 0.19 0.10 0.12 0.09 0.13 0.11 0.16 0.25 0.34 0.30 0.33 0.35 0.31 0.29 0.22 0.21 0.15 0.16 0.11 0.08 0.07 0.03 0.01 0.01 0.00 0.00
0.00 0.00 0.00 0.00 0.00 0.00 0.07 0.08 0.05 0.07 0.04 0.07 0.08 0.04 0.03 0.03 0.02 0.01 0.00 0.01 0.05 0.09 0.10 0.11 0.11 0.12 0.13 0.16 0.18 0.17 0.20 0.14 0.18 0.22 0.25 0.25 0.26 0.29 0.29 0.30 0.23 0.20 0.17 0.15 0.11 0.09 0.07 0.03 0.01 0.00 0.00 0.00 0.00 0.00
0.00 0.00 0.00 0.00 0.00 0.00 0.07 0.09 0.08 0.14 0.13 0.11 0.08 0.06 0.05 0.04 0.04 0.01 0.02 0.06 0.14 0.20 0.13 0.11 0.13 0.13 0.15 0.19 0.14 0.17 0.21 0.16 0.20 0.26 0.29 0.29 0.29 0.29 0.24 0.21 0.18 0.13 0.10 0.09 0.05 0.02 0.01 0.00 0.00 0.00 0.00 0.00 0.00 0.00
0.00 0.00 0.00 0.00 0.00 0.00 0.00 0.00 0.00 0.00 0.00 0.01 0.02 0.04 0.05 0.04 0.01 0.00 0.05 0.12 0.18 0.14 0.13 0.14 0.12 0.12 0.12 0.11 0.14 0.18 0.23 0.18 0.17 0.20 0.25 0.21 0.19 0.22 0.16 0.12 0.08 0.05 0.02 0.01 0.00 0.00 0.00 0.00 0.00 0.00 0.00 0.00 0.00 0.00
0.00 0.00 0.00 0.00 0.00 0.00 0.00 0.00 0.00 0.00 0.00 0.00 0.01 0.02 0.03 0.00 0.00 0.00 0.02 0.06 0.05 0.06 0.06 0.07 0.06 0.08 0.09 0.13 0.16 0.18 0.20 0.19 0.17 0.15 0.22 0.17 0.15 0.12 0.08 0.04 0.02 0.01 0.00 0.00 0.00 0.00 0.00 0.00 0.00 0.00 0.00 0.00 0.00 0.00
0.00 0.00 0.00 0.01 0.01 0.00 0.00 0.01 0.01 0.01 0.01 0.01 0.01 0.02 0.00 0.00 0.00 0.02 0.04 0.05 0.04 0.06 0.05 0.04 0.05 0.05 0.07 0.09 0.10 0.11 0.15 0.16 0.14 0.12 0.15 0.10 0.07 0.04 0.03 0.01 0.00 0.01 0.00 0.00 0.00 0.00 0.00 0.00 0.00 0.00 0.00 0.00 0.00 0.00
0.00 0.00 0.00 0.00 0.01 0.00 0.00 0.00 0.00 0.00 0.00 0.01 0.01 0.00 0.00 0.00 0.01 0.03 0.04 0.03 0.04 0.07 0.06 0.05 0.04 0.04 0.05 0.06 0.06 0.06 0.06 0.06 0.05 0.05 0.06 0.04 0.02 0.01 0.00 0.00 0.01 0.01 0.00 0.00 0.00 0.00 0.00 0.00 0.00 0.00 0.00 0.00 0.00 0.00
0.00 0.00 0.00 0.00 0.00 0.00 0.00 0.00 0.00 0.01 0.01 0.01 0.01 0.00 0.01 0.01 0.03 0.05 0.03 0.04 0.03 0.03 0.04 0.05 0.05 0.05 0.05 0.04 0.03 0.02 0.01 0.01 0.00 0.00 0.00 0.00 0.00 0.00 0.00 0.00 0.00 0.00 0.00 0.00 0.00 0.00 0.00 0.00 0.00 0.00 0.00 0.00 0.00 0.00
0.00 0.00 0.00 0.00 0.00 0.00 0.01 0.01 0.01 0.01 0.01 0.01 0.01 0.01 0.02 0.06 0.06 0.02 0.03 0.03 0.03 0.02 0.03 0.04 0.05 0.03 0.03 0.03 0.02 0.01 0.01 0.00 0.00 0.00 0.00 0.00 0.00 0.01 0.00 0.00 0.00 0.00 0.00 0.00 0.00 0.00 0.00 0.00 0.00 0.00 0.00 0.00 0.00 0.00
0.00 0.00 0.00 0.00 0.00 0.01 0.03 0.01 0.02 0.01 0.00 0.00 0.00 0.01 0.01 0.05 0.11 0.07 0.06 0.04 0.03 0.03 0.04 0.04 0.03 0.01 0.00 0.00 0.00 0.00 0.00 0.00 0.00 0.00 0.00 0.00 0.00 0.01 0.00 0.00 0.00 0.00 0.00 0.00 0.00 0.00 0.00 0.00 0.00 0.00 0.00 0.00 0.00 0.00
0.00 0.00 0.00 0.00 0.01 0.02 0.01 0.00 0.00 0.00 0.00 0.00 0.00 0.00 0.01 0.03 0.03 0.03 0.02 0.03 0.02 0.02 0.01 0.02 0.02 0.02 0.00 0.00 0.00 0.00 0.00 0.00 0.00 0.00 0.00 0.00 0.00 0.00 0.00 0.00 0.00 0.00 0.00 0.00 0.00 0.00 0.00 0.00 0.00 0.00 0.00 0.00 0.00 0.00
0.00 0.00 0.00 0.00 0.01 0.01 0.02 0.04 0.01 0.01 0.01 0.00 0.00 0.00 0.01 0.01 0.01 0.01 0.02 0.04 0.04 0.02 0.02 0.01 0.01 0.01 0.00 0.00 0.00 0.00 0.00 0.00 0.00 0.00 0.00 0.00 0.00 0.00 0.00 0.00 0.00 0.00 0.00 0.00 0.00 0.00 0.00 0.00 0.00 0.00 0.00 0.00 0.00 0.00
0.00 0.00 0.00 0.00 0.00 0.01 0.01 0.02 0.01 0.01 0.01 0.01 0.02 0.02 0.02 0.01 0.01 0.01 0.01 0.03 0.04 0.01 0.01 0.00 0.00 0.00 0.00 0.00 0.00 0.00 0.00 0.00 0.00 0.00 0.00 0.00 0.00 0.00 0.00 0.00 0.00 0.00 0.00 0.00 0.00 0.00 0.00 0.00 0.00 0.00 0.00 0.00 0.00 0.00

GFSWCAN_prec_precacc12_087.txt.gz
Total_Precipitation_Accumulation
0.07 0.06 0.06 0.05 0.04 0.04 0.04 0.04 0.06 0.07 0.06 0.05 0.06 0.06 0.10 0.20 0.33 0.58 0.87 0.52 0.45 0.48 0.12 0.01 0.01 0.00 0.01 0.03 0.06 0.04 0.12 0.08 0.08 0.10 0.04 0.02 0.01 0.00 0.00 0.00 0.04 0.17 0.38 0.33 0.33 0.21 0.06 0.06 0.11 0.19 0.16 0.07 0.01 0.00
0.06 0.06 0.05 0.04 0.04 0.04 0.04 0.04 0.04 0.04 0.04 0.04 0.06 0.07 0.04 0.07 0.17 0.59 1.03 0.91 0.36 0.48 0.35 0.05 0.01 0.00 0.00 0.00 0.05 0.10 0.05 0.02 0.01 0.01 0.00 0.00 0.00 0.00 0.00 0.00 0.00 0.02 0.07 0.14 0.21 0.19 0.08 0.03 0.06 0.12 0.08 0.08 0.04 0.02
0.04 0.03 0.04 0.04 0.03 0.03 0.03 0.04 0.04 0.04 0.06 0.05 0.05 0.09 0.10 0.06 0.08 0.34 1.06 0.72 0.84 1.02 0.62 0.07 0.04 0.00 0.00 0.00 0.01 0.01 0.01 0.03 0.06 0.02 0.03 0.03 0.01 0.00 0.00 0.00 0.00 0.00 0.02 0.03 0.02 0.00 0.01 0.02 0.01 0.00 0.01 0.01 0.01 0.00
0.03 0.06 0.06 0.04 0.04 0.05 0.04 0.03 0.03 0.04 0.06 0.06 0.06 0.07 0.12 0.12 0.11 0.20 0.57 0.76 0.75 1.07 0.57 0.15 0.00 0.00 0.00 0.00 0.01 0.00 0.00 0.04 0.08 0.12 0.09 0.10 0.06 0.02 0.00 0.00 0.00 0.00 0.01 0.02 0.01 0.00 0.00 0.00 0.00 0.01 0.00 0.00 0.00 0.01
0.15 0.16 0.10 0.08 0.09 0.09 0.09 0.08 0.06 0.05 0.08 0.09 0.09 0.09 0.13 0.23 0.21 0.23 0.12 0.37 0.74 0.43 0.35 0.05 0.00 0.00 0.00 0.00 0.02 0.04 0.04 0.07 0.07 0.13 0.15 0.09 0.06 0.06 0.03 0.01 0.00 0.00 0.00 0.00 0.00 0.00 0.00 0.00 0.00 0.00 0.00 0.00 0.00 0.00
0.19 0.06 0.04 0.07 0.08 0.09 0.08 0.11 0.12 0.15 0.13 0.12 0.15 0.17 0.20 0.36 0.54 0.69 0.64 0.39 0.53 0.37 0.40 0.21 0.04 0.00 0.01 0.01 0.04 0.04 0.05 0.09 0.11 0.11 0.12 0.08 0.04 0.07 0.05 0.02 0.00 0.00 0.00 0.00 0.00 0.00 0.00 0.00 0.00 0.00 0.00 0.00 0.00 0.00
0.02 0.04 0.08 0.08 0.03 0.03 0.03 0.06 0.10 0.12 0.15 0.16 0.20 0.22 0.27 0.60 0.93 0.85 0.37 0.16 0.24 0.43 0.61 0.28 0.07 0.02 0.07 0.05 0.04 0.05 0.08 0.12 0.16 0.20 0.12 0.04 0.04 0.09 0.07 0.03 0.00 0.00 0.00 0.00 0.00 0.00 0.00 0.00 0.01 0.01 0.01 0.01 0.01 0.02
0.02 0.05 0.04 0.02 0.01 0.02 0.02 0.08 0.15 0.19 0.17 0.15 0.22 0.25 0.37 0.69 0.81 0.38 0.04 0.01 0.17 0.41 0.49 0.40 0.17 0.05 0.07 0.13 0.08 0.05 0.08 0.16 0.31 0.19 0.08 0.02 0.03 0.08 0.14 0.02 0.00 0.00 0.01 0.00 0.00 0.01 0.00 0.00 0.01 0.01 0.01 0.01 0.04 0.02
0.02 0.05 0.08 0.05 0.04 0.04 0.06 0.10 0.14 0.21 0.29 0.38 0.47 0.58 0.85 1.23 1.17 0.36 0.08 0.13 0.14 0.26 0.22 0.23 0.19 0.11 0.07 0.09 0.10 0.07 0.15 0.30 0.17 0.11 0.07 0.05 0.02 0.07 0.06 0.07 0.07 0.01 0.00 0.00 0.00 0.01 0.02 0.03 0.03 0.02 0.02 0.02 0.02 0.02
0.09 0.11 0.19 0.24 0.21 0.16 0.17 0.27 0.44 0.62 0.70 0.65 0.74 1.15 1.64 1.10 0.38 0.37 0.60 0.66 0.43 0.27 0.09 0.06 0.07 0.11 0.07 0.06 0.09 0.21 0.13 0.19 0.14 0.03 0.01 0.02 0.01 0.04 0.06 0.04 0.04 0.01 0.00 0.00 0.00 0.00 0.00 0.01 0.02 0.02 0.01 0.00 0.01 0.01
0.12 0.18 0.23 0.25 0.26 0.33 0.44 0.51 0.53 0.55 0.44 0.38 0.59 1.05 1.11 0.44 0.27 0.45 0.57 0.48 0.37 0.17 0.06 0.03 0.02 0.05 0.07 0.03 0.04 0.11 0.16 0.07 0.05 0.01 0.01 0.01 0.01 0.01 0.09 0.11 0.05 0.04 0.02 0.01 0.00 0.00 0.00 0.00 0.00 0.00 0.00 0.00 0.00 0.00
0.08 0.11 0.15 0.17 0.18 0.18 0.14 0.09 0.10 0.08 0.07 0.10 0.35 0.47 0.41 0.46 0.36 0.33 0.20 0.22 0.12 0.04 0.03 0.02 0.00 0.03 0.03 0.07 0.07 0.17 0.15 0.08 0.02 0.00 0.04 0.01 0.12 0.12 0.05 0.09 0.06 0.06 0.06 0.04 0.02 0.01 0.01 0.01 0.01 0.00 0.00 0.00 0.00 0.00
0.03 0.02 0.02 0.02 0.04 0.05 0.06 0.06 0.02 0.02 0.02 0.02 0.06 0.14 0.26 0.19 0.10 0.11 0.05 0.06 0.08 0.04 0.01 0.01 0.00 0.00 0.00 0.03 0.09 0.22 0.18 0.03 0.04 0.09 0.08 0.08 0.05 0.13 0.09 0.10 0.14 0.06 0.06 0.07 0.02 0.01 0.00 0.00 0.00 0.01 0.01 0.01 0.01 0.02
0.01 0.00 0.01 0.02 0.02 0.02 0.02 0.02 0.03 0.03 0.02 0.02 0.01 0.03 0.04 0.02 0.05 0.07 0.07 0.05 0.03 0.02 0.00 0.00 0.00 0.00 0.01 0.02 0.07 0.14 0.17 0.20 0.16 0.11 0.07 0.05 0.04 0.05 0.08 0.09 0.16 0.19 0.13 0.18 0.26 0.12 0.06 0.03 0.04 0.07 0.09 0.08 0.06 0.10
0.00 0.00 0.00 0.00 0.00 0.01 0.04 0.04 0.03 0.01 0.00 0.00 0.00 0.02 0.05 0.13 0.11 0.12 0.08 0.06 0.04 0.02 0.01 0.01 0.02 0.02 0.08 0.18 0.18 0.24 0.26 0.27 0.19 0.08 0.08 0.07 0.05 0.05 0.08 0.10 0.12 0.19 0.24 0.22 0.35 0.50 0.44 0.33 0.24 0.31 0.32 0.28 0.19 0.21
0.00 0.00 0.00 0.00 0.00 0.00 0.00 0.00 0.00 0.00 0.00 0.00 0.02 0.05 0.07 0.11 0.09 0.08 0.10 0.12 0.08 0.06 0.07 0.16 0.09 0.14 0.22 0.21 0.20 0.21 0.14 0.08 0.10 0.10 0.09 0.09 0.10 0.09 0.11 0.13 0.17 0.21 0.23 0.28 0.31 0.38 0.52 0.62 0.62 0.58 0.59 0.51 0.45 0.33
0.00 0.00 0.00 0.00 0.00 0.00 0.00 0.00 0.00 0.00 0.00 0.01 0.04 0.06 0.07 0.06 0.08 0.09 0.17 0.19 0.13 0.10 0.13 0.16 0.11 0.09 0.11 0.06 0.07 0.09 0.09 0.10 0.13 0.14 0.13 0.13 0.15 0.18 0.16 0.17 0.19 0.20 0.24 0.28 0.34 0.36 0.39 0.45 0.45 0.42 0.52 0.58 0.41 0.31
0.00 0.00 0.00 0.00 0.00 0.00 0.00 0.00 0.00 0.00 0.01 0.05 0.05 0.10 0.05 0.05 0.06 0.08 0.15 0.23 0.21 0.09 0.06 0.08 0.03 0.02 0.08 0.08 0.09 0.17 0.16 0.15 0.14 0.18 0.20 0.20 0.18 0.21 0.22 0.22 0.25 0.23 0.26 0.30 0.31 0.35 0.34 0.32 0.28 0.31 0.28 0.28 0.20 0.20
0.00 0.00 0.00 0.00 0.00 0.00 0.00 0.00 0.00 0.00 0.03 0.03 0.04 0.04 0.02 0.05 0.08 0.11 0.17 0.25 0.13 0.06 0.07 0.08 0.05 0.05 0.08 0.12 0.13 0.17 0.15 0.13 0.15 0.18 0.21 0.27 0.27 0.25 0.27 0.27 0.26 0.28 0.27 0.29 0.24 0.23 0.29 0.27 0.22 0.20 0.18 0.17 0.12 0.13
0.00 0.00 0.00 0.00 0.00 0.00 0.00 0.00 0.00 0.00 0.01 0.02 0.01 0.00 0.01 0.04 0.05 0.04 0.06 0.08 0.07 0.03 0.03 0.04 0.08 0.10 0.12 0.12 0.14 0.15 0.14 0.13 0.10 0.11 0.16 0.24 0.34 0.31 0.32 0.28 0.30 0.30 0.26 0.27 0.27 0.24 0.19 0.18 0.18 0.15 0.12 0.10 0.05 0.04
0.00 0.00 0.00 0.00 0.00 0.00 0.01 0.01 0.00 0.01 0.03 0.03 0.03 0.02 0.01 0.00 0.01 0.01 0.02 0.01 0.02 0.06 0.08 0.09 0.10 0.13 0.17 0.18 0.15 0.08 0.09 0.07 0.09 0.08 0.12 0.19 0.28 0.26 0.29 0.32 0.28 0.29 0.23 0.24 0.19 0.22 0.17 0.13 0.13 0.08 0.04 0.02 0.01 0.01
0.00 0.00 0.00 0.00 0.00 0.00 0.06 0.05 0.01 0.02 0.01 0.04 0.04 0.01 0.00 0.00 0.00 0.00 0.00 0.01 0.05 0.11 0.12 0.12 0.11 0.11 0.11 0.12 0.14 0.13 0.14 0.10 0.13 0.16 0.19 0.21 0.22 0.25 0.27 0.29 0.25 0.22 0.20 0.20 0.16 0.13 0.11 0.06 0.02 0.00 0.00 0.00 0.00 0.00
0.00 0.00 0.00 0.00 0.00 0.00 0.08 0.09 0.06 0.11 0.09 0.08 0.05 0.03 0.02 0.02 0.01 0.00 0.01 0.04 0.11 0.15 0.11 0.10 0.10 0.10 0.10 0.14 0.11 0.12 0.16 0.13 0.16 0.21 0.25 0.27 0.28 0.28 0.25 0.24 0.23 0.18 0.13 0.14 0.09 0.05 0.02 0.00 0.00 0.00 0.00 0.00 0.00 0.00
0.00 0.00 0.00 0.00 0.00 0.00 0.00 0.00 0.00 0.00 0.00 0.01 0.02 0.04 0.05 0.02 0.01 0.00 0.03 0.09 0.13 0.10 0.08 0.09 0.08 0.08 0.08 0.07 0.10 0.13 0.17 0.14 0.13 0.16 0.21 0.20 0.19 0.23 0.20 0.15 0.11 0.08 0.05 0.03 0.01 0.00 0.00 0.00 0.00 0.00 0.00 0.00 0.00 0.00
0.00 0.00 0.00 0.00 0.00 0.00 0.00 0.00 0.00 0.00 0.00 0.00 0.00 0.02 0.02 0.00 0.00 0.00 0.01 0.04 0.04 0.04 0.04 0.04 0.04 0.05 0.06 0.09 0.11 0.13 0.16 0.15 0.14 0.12 0.21 0.20 0.19 0.16 0.12 0.09 0.05 0.02 0.00 0.00 0.00 0.00 0.00 0.00 0.00 0.00 0.00 0.00 0.00 0.00
0.00 0.00 0.00 0.01 0.00 0.00 0.00 0.00 0.00 0.00 0.00 0.01 0.01 0.01 0.00 0.00 0.00 0.01 0.03 0.04 0.04 0.04 0.04 0.03 0.03 0.03 0.04 0.06 0.07 0.08 0.12 0.15 0.13 0.11 0.16 0.14 0.11 0.09 0.07 0.05 0.03 0.02 0.00 0.00 0.00 0.00 0.00 0.00 0.00 0.00 0.00 0.00 0.00 0.00
0.00 0.00 0.00 0.00 0.01 0.00 0.00 0.00 0.00 0.00 0.00 0.01 0.00 0.00 0.00 0.00 0.01 0.02 0.03 0.03 0.03 0.06 0.05 0.04 0.03 0.03 0.04 0.05 0.06 0.07 0.08 0.07 0.06 0.07 0.08 0.06 0.04 0.03 0.02 0.01 0.01 0.01 0.00 0.00 0.00 0.00 0.00 0.00 0.00 0.00 0.00 0.00 0.00 0.00
0.00 0.00 0.00 0.00 0.00 0.00 0.00 0.00 0.00 0.01 0.01 0.01 0.00 0.00 0.00 0.01 0.02 0.03 0.03 0.04 0.03 0.03 0.03 0.04 0.04 0.04 0.04 0.04 0.03 0.02 0.01 0.01 0.01 0.00 0.00 0.00 0.00 0.00 0.00 0.00 0.00 0.00 0.00 0.00 0.00 0.00 0.00 0.00 0.00 0.00 0.00 0.00 0.00 0.00
0.00 0.00 0.00 0.00 0.00 0.00 0.01 0.01 0.01 0.01 0.01 0.01 0.00 0.01 0.02 0.05 0.05 0.02 0.03 0.03 0.02 0.02 0.02 0.03 0.04 0.03 0.03 0.03 0.02 0.00 0.00 0.00 0.00 0.00 0.00 0.00 0.00 0.00 0.00 0.00 0.00 0.00 0.00 0.00 0.00 0.00 0.00 0.00 0.00 0.00 0.00 0.00 0.00 0.00
0.00 0.00 0.00 0.00 0.01 0.01 0.02 0.01 0.01 0.00 0.00 0.00 0.01 0.01 0.02 0.05 0.10 0.06 0.04 0.03 0.02 0.02 0.03 0.02 0.02 0.00 0.00 0.00 0.00 0.00 0.00 0.00 0.00 0.00 0.00 0.00 0.00 0.00 0.00 0.00 0.00 0.00 0.00 0.00 0.00 0.00 0.00 0.00 0.00 0.00 0.00 0.00 0.00 0.00
0.00 0.00 0.00 0.00 0.01 0.01 0.00 0.00 0.00 0.00 0.00 0.00 0.00 0.00 0.01 0.04 0.04 0.04 0.03 0.03 0.02 0.01 0.01 0.01 0.02 0.01 0.00 0.00 0.00 0.00 0.00 0.00 0.00 0.00 0.00 0.00 0.00 0.00 0.00 0.00 0.00 0.00 0.00 0.00 0.00 0.00 0.00 0.00 0.00 0.00 0.00 0.00 0.00 0.00
0.00 0.00 0.00 0.00 0.01 0.01 0.02 0.02 0.01 0.00 0.00 0.00 0.00 0.00 0.01 0.00 0.00 0.01 0.02 0.03 0.03 0.02 0.01 0.01 0.01 0.01 0.00 0.00 0.00 0.00 0.00 0.00 0.00 0.00 0.00 0.00 0.00 0.00 0.00 0.00 0.00 0.00 0.00 0.00 0.00 0.00 0.00 0.00 0.00 0.00 0.00 0.00 0.00 0.00
0.00 0.00 0.00 0.00 0.00 0.01 0.01 0.02 0.00 0.00 0.01 0.01 0.01 0.01 0.01 0.01 0.00 0.01 0.02 0.03 0.02 0.00 0.00 0.00 0.00 0.00 0.00 0.00 0.00 0.00 0.00 0.00 0.00 0.00 0.00 0.00 0.00 0.00 0.00 0.00 0.00 0.00 0.00 0.00 0.00 0.00 0.00 0.00 0.00 0.00 0.00 0.00 0.00 0.00